Wetterdaten: Samstag, 04.07.2020
Datum Zeit Temp. Aussen Temp. o. S. Temp +5cm Feuchte Auss Luftdruck Regen Sonnenschein Regendauer Solar Windben Empfang
04.07.2020 00:00 17,5 C 15,6 C 15,6 C 80 % 1017,7 hPa 0,0 l/m 0 min 0 min 0 W/m 0,0 km/h (0 Bft) 95,74 %
04.07.2020 00:02 17,5 C 15,6 C 15,6 C 80 % 1017,8 hPa 0,0 l/m 0 min 0 min 0 W/m 0,0 km/h (0 Bft) 95,65 %
04.07.2020 00:04 17,4 C 15,6 C 15,0 C 80 % 1017,8 hPa 0,0 l/m 0 min 0 min 0 W/m 0,0 km/h (0 Bft) 95,74 %
04.07.2020 00:08 17,3 C 15,6 C 15,0 C 80 % 1017,8 hPa 0,0 l/m 0 min 0 min 0 W/m 0,0 km/h (0 Bft) 95,74 %
04.07.2020 00:10 17,3 C 15,6 C 15,0 C 80 % 1017,7 hPa 0,0 l/m 0 min 0 min 0 W/m 0,0 km/h (0 Bft) 97,83 %
04.07.2020 00:12 17,3 C 15,6 C 15,0 C 80 % 1017,7 hPa 0,0 l/m 0 min 0 min 0 W/m 0,0 km/h (0 Bft) 97,87 %
04.07.2020 00:14 17,2 C 15,6 C 15,0 C 80 % 1017,8 hPa 0,0 l/m 0 min 0 min 0 W/m 6,4 km/h (2 Bft) 97,87 %
04.07.2020 00:16 17,2 C 15,6 C 15,0 C 80 % 1017,8 hPa 0,0 l/m 0 min 0 min 0 W/m 3,2 km/h (1 Bft) 97,87 %
04.07.2020 00:18 17,2 C 15,6 C 15,0 C 80 % 1017,8 hPa 0,0 l/m 0 min 0 min 0 W/m 0,0 km/h (0 Bft) 97,87 %
04.07.2020 00:20 17,1 C 15,6 C 15,0 C 81 % 1017,8 hPa 0,0 l/m 0 min 0 min 0 W/m 0,0 km/h (0 Bft) 97,87 %
04.07.2020 00:22 17,1 C 15,6 C 15,0 C 81 % 1017,7 hPa 0,0 l/m 0 min 0 min 0 W/m 0,0 km/h (0 Bft) 100,00 %
04.07.2020 00:24 17,1 C 15,6 C 15,6 C 81 % 1017,7 hPa 0,0 l/m 0 min 0 min 0 W/m 0,0 km/h (0 Bft) 97,87 %
04.07.2020 00:26 17,0 C 15,6 C 15,6 C 81 % 1017,6 hPa 0,0 l/m 0 min 0 min 0 W/m 0,0 km/h (0 Bft) 97,87 %
04.07.2020 00:28 17,0 C 15,6 C 15,6 C 81 % 1017,7 hPa 0,0 l/m 0 min 0 min 0 W/m 0,0 km/h (0 Bft) 97,87 %
04.07.2020 00:30 16,9 C 15,6 C 15,6 C 81 % 1017,7 hPa 0,0 l/m 0 min 0 min 0 W/m 0,0 km/h (0 Bft) 97,87 %
04.07.2020 00:32 16,9 C 15,6 C 15,6 C 81 % 1017,8 hPa 0,0 l/m 0 min 0 min 0 W/m 3,2 km/h (1 Bft) 97,87 %
04.07.2020 00:34 16,9 C 15,6 C 15,6 C 81 % 1017,8 hPa 0,0 l/m 0 min 0 min 0 W/m 0,0 km/h (0 Bft) 97,87 %
04.07.2020 00:36 16,8 C 15,6 C 15,6 C 81 % 1017,8 hPa 0,0 l/m 0 min 0 min 0 W/m 0,0 km/h (0 Bft) 97,87 %
04.07.2020 00:38 16,8 C 15,6 C 15,6 C 81 % 1017,8 hPa 0,0 l/m 0 min 0 min 0 W/m 0,0 km/h (0 Bft) 95,74 %
04.07.2020 00:40 16,8 C 15,6 C 15,6 C 81 % 1017,8 hPa 0,0 l/m 0 min 0 min 0 W/m 0,0 km/h (0 Bft) 93,62 %
04.07.2020 00:42 16,8 C 15,6 C 15,6 C 81 % 1017,8 hPa 0,0 l/m 0 min 0 min 0 W/m 6,4 km/h (2 Bft) 95,74 %
04.07.2020 00:44 16,7 C 15,6 C 15,6 C 81 % 1017,8 hPa 0,0 l/m 0 min 0 min 0 W/m 6,4 km/h (2 Bft) 95,65 %
04.07.2020 00:46 16,7 C 15,6 C 15,6 C 81 % 1017,9 hPa 0,0 l/m 0 min 0 min 0 W/m 6,4 km/h (2 Bft) 93,62 %
04.07.2020 00:48 16,7 C 15,6 C 15,6 C 81 % 1017,9 hPa 0,0 l/m 0 min 0 min 0 W/m 6,4 km/h (2 Bft) 97,87 %
04.07.2020 00:50 16,7 C 15,6 C 15,6 C 81 % 1017,9 hPa 0,0 l/m 0 min 0 min 0 W/m 6,4 km/h (2 Bft) 95,74 %
04.07.2020 00:52 16,7 C 15,6 C 15,6 C 81 % 1017,9 hPa 0,0 l/m 0 min 0 min 0 W/m 12,9 km/h (3 Bft) 95,74 %
04.07.2020 00:54 16,6 C 15,6 C 15,6 C 81 % 1017,9 hPa 0,0 l/m 0 min 0 min 0 W/m 6,4 km/h (2 Bft) 95,65 %
04.07.2020 00:56 16,6 C 15,6 C 15,6 C 81 % 1017,9 hPa 0,0 l/m 0 min 0 min 0 W/m 6,4 km/h (2 Bft) 95,74 %
04.07.2020 00:58 16,6 C 15,6 C 15,6 C 81 % 1017,9 hPa 0,0 l/m 0 min 0 min 0 W/m 9,7 km/h (2 Bft) 95,74 %
04.07.2020 01:00 16,6 C 15,6 C 15,6 C 81 % 1017,9 hPa 0,0 l/m 0 min 0 min 0 W/m 16,1 km/h (3 Bft) 95,74 %
04.07.2020 01:02 16,6 C 15,6 C 15,6 C 80 % 1017,9 hPa 0,0 l/m 0 min 0 min 0 W/m 12,9 km/h (3 Bft) 94,44 %
04.07.2020 01:04 16,6 C 15,6 C 15,6 C 80 % 1017,9 hPa 0,0 l/m 0 min 0 min 0 W/m 6,4 km/h (2 Bft) 95,74 %
04.07.2020 01:06 16,6 C 15,6 C 15,6 C 80 % 1017,9 hPa 0,0 l/m 0 min 0 min 0 W/m 12,9 km/h (3 Bft) 95,74 %
04.07.2020 01:08 16,6 C 15,6 C 15,6 C 80 % 1017,9 hPa 0,0 l/m 0 min 0 min 0 W/m 6,4 km/h (2 Bft) 94,83 %
04.07.2020 01:10 16,6 C 15,6 C 15,6 C 80 % 1017,9 hPa 0,0 l/m 0 min 0 min 0 W/m 12,9 km/h (3 Bft) 94,29 %
04.07.2020 01:12 16,6 C 15,6 C 15,6 C 80 % 1017,9 hPa 0,0 l/m 0 min 0 min 0 W/m 12,9 km/h (3 Bft) 95,74 %
04.07.2020 01:14 16,6 C 15,6 C 15,6 C 80 % 1017,9 hPa 0,0 l/m 0 min 0 min 0 W/m 6,4 km/h (2 Bft) 95,74 %
04.07.2020 01:16 16,6 C 15,6 C 15,6 C 79 % 1017,9 hPa 0,0 l/m 0 min 0 min 0 W/m 6,4 km/h (2 Bft) 95,74 %
04.07.2020 01:18 16,6 C 15,6 C 15,6 C 79 % 1017,9 hPa 0,0 l/m 0 min 0 min 0 W/m 6,4 km/h (2 Bft) 97,87 %
04.07.2020 01:20 16,5 C 15,6 C 15,6 C 79 % 1017,9 hPa 0,0 l/m 0 min 0 min 0 W/m 0,0 km/h (0 Bft) 95,74 %
04.07.2020 01:22 16,5 C 15,6 C 15,0 C 80 % 1017,9 hPa 0,0 l/m 0 min 0 min 0 W/m 3,2 km/h (1 Bft) 97,83 %
04.07.2020 01:24 16,5 C 15,6 C 15,0 C 80 % 1017,9 hPa 0,0 l/m 0 min 0 min 0 W/m 12,9 km/h (3 Bft) 97,87 %
04.07.2020 01:26 16,5 C 15,6 C 15,0 C 80 % 1017,9 hPa 0,0 l/m 0 min 0 min 0 W/m 6,4 km/h (2 Bft) 97,96 %
04.07.2020 01:28 16,5 C 15,6 C 15,0 C 80 % 1017,8 hPa 0,0 l/m 0 min 0 min 0 W/m 12,9 km/h (3 Bft) 100,00 %
04.07.2020 01:30 16,5 C 15,6 C 15,0 C 80 % 1017,8 hPa 0,0 l/m 0 min 0 min 0 W/m 6,4 km/h (2 Bft) 95,74 %
04.07.2020 01:32 16,5 C 15,6 C 15,0 C 80 % 1017,8 hPa 0,0 l/m 0 min 0 min 0 W/m 12,9 km/h (3 Bft) 97,87 %
04.07.2020 01:34 16,5 C 15,6 C 15,0 C 80 % 1017,8 hPa 0,0 l/m 0 min 0 min 0 W/m 6,4 km/h (2 Bft) 100,00 %
04.07.2020 01:36 16,5 C 15,6 C 15,0 C 80 % 1017,8 hPa 0,0 l/m 0 min 0 min 0 W/m 12,9 km/h (3 Bft) 100,00 %
04.07.2020 01:38 16,4 C 15,6 C 15,0 C 81 % 1017,7 hPa 0,0 l/m 0 min 0 min 0 W/m 6,4 km/h (2 Bft) 100,00 %
04.07.2020 01:40 16,4 C 15,6 C 15,0 C 81 % 1017,7 hPa 0,0 l/m 0 min 0 min 0 W/m 16,1 km/h (3 Bft) 93,62 %
04.07.2020 01:42 16,4 C 15,6 C 15,0 C 81 % 1017,7 hPa 0,0 l/m 0 min 0 min 0 W/m 12,9 km/h (3 Bft) 97,87 %
04.07.2020 01:44 16,4 C 15,6 C 15,0 C 81 % 1017,7 hPa 0,0 l/m 0 min 0 min 0 W/m 12,9 km/h (3 Bft) 100,00 %
04.07.2020 01:46 16,4 C 15,6 C 15,0 C 80 % 1017,7 hPa 0,0 l/m 0 min 0 min 0 W/m 12,9 km/h (3 Bft) 97,87 %
04.07.2020 01:48 16,4 C 15,6 C 15,6 C 80 % 1017,7 hPa 0,0 l/m 0 min 0 min 0 W/m 6,4 km/h (2 Bft) 100,00 %
04.07.2020 01:50 16,4 C 15,6 C 15,6 C 80 % 1017,7 hPa 0,0 l/m 0 min 0 min 0 W/m 6,4 km/h (2 Bft) 97,87 %
04.07.2020 01:52 16,4 C 15,6 C 15,6 C 79 % 1017,7 hPa 0,0 l/m 0 min 0 min 0 W/m 12,9 km/h (3 Bft) 100,00 %
04.07.2020 01:54 16,4 C 15,6 C 15,6 C 79 % 1017,7 hPa 0,0 l/m 0 min 0 min 0 W/m 12,9 km/h (3 Bft) 100,00 %
04.07.2020 01:56 16,4 C 15,6 C 15,6 C 79 % 1017,7 hPa 0,0 l/m 0 min 0 min 0 W/m 12,9 km/h (3 Bft) 97,83 %
04.07.2020 01:58 16,4 C 15,6 C 15,6 C 79 % 1017,7 hPa 0,0 l/m 0 min 0 min 0 W/m 16,1 km/h (3 Bft) 100,00 %
04.07.2020 02:00 16,4 C 15,6 C 15,6 C 78 % 1017,7 hPa 0,0 l/m 0 min 0 min 0 W/m 12,9 km/h (3 Bft) 100,00 %
04.07.2020 02:02 16,4 C 15,6 C 15,6 C 78 % 1017,6 hPa 0,0 l/m 0 min 0 min 0 W/m 16,1 km/h (3 Bft) 97,87 %
04.07.2020 02:04 16,4 C 15,6 C 15,6 C 78 % 1017,7 hPa 0,0 l/m 0 min 0 min 0 W/m 16,1 km/h (3 Bft) 97,87 %
04.07.2020 02:06 16,4 C 15,6 C 15,6 C 78 % 1017,6 hPa 0,0 l/m 0 min 0 min 0 W/m 12,9 km/h (3 Bft) 97,87 %
04.07.2020 02:08 16,4 C 15,6 C 15,6 C 78 % 1017,6 hPa 0,0 l/m 0 min 0 min 0 W/m 6,4 km/h (2 Bft) 97,83 %
04.07.2020 02:10 16,4 C 15,6 C 15,0 C 78 % 1017,6 hPa 0,0 l/m 0 min 0 min 0 W/m 12,9 km/h (3 Bft) 97,87 %
04.07.2020 02:12 16,4 C 15,6 C 15,0 C 78 % 1017,6 hPa 0,0 l/m 0 min 0 min 0 W/m 12,9 km/h (3 Bft) 97,87 %
04.07.2020 02:14 16,4 C 15,6 C 15,0 C 78 % 1017,5 hPa 0,0 l/m 0 min 0 min 0 W/m 6,4 km/h (2 Bft) 97,87 %
04.07.2020 02:16 16,4 C 15,6 C 15,0 C 78 % 1017,5 hPa 0,0 l/m 0 min 0 min 0 W/m 16,1 km/h (3 Bft) 97,87 %
04.07.2020 02:18 16,4 C 15,6 C 15,0 C 78 % 1017,5 hPa 0,0 l/m 0 min 0 min 0 W/m 12,9 km/h (3 Bft) 97,87 %
04.07.2020 02:20 16,4 C 15,0 C 15,0 C 79 % 1017,5 hPa 0,0 l/m 0 min 0 min 0 W/m 16,1 km/h (3 Bft) 97,83 %
04.07.2020 02:22 16,4 C 15,0 C 15,0 C 79 % 1017,4 hPa 0,0 l/m 0 min 0 min 0 W/m 0,0 km/h (0 Bft) 97,87 %
04.07.2020 02:24 16,4 C 15,0 C 15,0 C 79 % 1017,4 hPa 0,0 l/m 0 min 0 min 0 W/m 12,9 km/h (3 Bft) 95,74 %
04.07.2020 02:26 16,4 C 15,0 C 15,0 C 79 % 1017,4 hPa 0,0 l/m 0 min 0 min 0 W/m 12,9 km/h (3 Bft) 97,87 %
04.07.2020 02:28 16,3 C 15,0 C 15,0 C 79 % 1017,3 hPa 0,0 l/m 0 min 0 min 0 W/m 12,9 km/h (3 Bft) 97,87 %
04.07.2020 02:30 16,3 C 15,0 C 15,0 C 79 % 1017,3 hPa 0,0 l/m 0 min 0 min 0 W/m 12,9 km/h (3 Bft) 97,87 %
04.07.2020 02:32 16,3 C 15,0 C 15,0 C 79 % 1017,3 hPa 0,0 l/m 0 min 0 min 0 W/m 16,1 km/h (3 Bft) 97,83 %
04.07.2020 02:34 16,3 C 15,0 C 15,0 C 79 % 1017,3 hPa 0,0 l/m 0 min 0 min 0 W/m 16,1 km/h (3 Bft) 95,74 %
04.07.2020 02:36 16,3 C 15,0 C 15,0 C 80 % 1017,3 hPa 0,0 l/m 0 min 0 min 0 W/m 16,1 km/h (3 Bft) 97,87 %
04.07.2020 02:38 16,3 C 15,0 C 15,0 C 80 % 1017,3 hPa 0,0 l/m 0 min 0 min 0 W/m 12,9 km/h (3 Bft) 97,87 %
04.07.2020 02:40 16,2 C 15,0 C 15,0 C 80 % 1017,3 hPa 0,0 l/m 0 min 0 min 0 W/m 12,9 km/h (3 Bft) 97,87 %
04.07.2020 02:42 16,2 C 15,0 C 14,4 C 80 % 1017,3 hPa 0,0 l/m 0 min 0 min 0 W/m 12,9 km/h (3 Bft) 97,83 %
04.07.2020 02:44 16,2 C 15,0 C 14,4 C 81 % 1017,3 hPa 0,0 l/m 0 min 0 min 0 W/m 0,0 km/h (0 Bft) 97,87 %
04.07.2020 02:46 16,2 C 14,4 C 14,4 C 81 % 1017,3 hPa 0,0 l/m 0 min 0 min 0 W/m 0,0 km/h (0 Bft) 97,87 %
04.07.2020 02:48 16,2 C 14,4 C 14,4 C 81 % 1017,4 hPa 0,0 l/m 0 min 0 min 0 W/m 6,4 km/h (2 Bft) 100,00 %
04.07.2020 02:50 16,2 C 14,4 C 14,4 C 81 % 1017,4 hPa 0,0 l/m 0 min 0 min 0 W/m 0,0 km/h (0 Bft) 97,87 %
04.07.2020 02:52 16,1 C 14,4 C 14,4 C 81 % 1017,4 hPa 0,0 l/m 0 min 0 min 0 W/m 12,9 km/h (3 Bft) 100,00 %
04.07.2020 02:54 16,1 C 14,4 C 14,4 C 81 % 1017,4 hPa 0,0 l/m 0 min 0 min 0 W/m 6,4 km/h (2 Bft) 100,00 %
04.07.2020 02:56 16,1 C 14,4 C 14,4 C 81 % 1017,4 hPa 0,0 l/m 0 min 0 min 0 W/m 0,0 km/h (0 Bft) 100,00 %
04.07.2020 02:58 16,1 C 14,4 C 14,4 C 81 % 1017,4 hPa 0,0 l/m 0 min 0 min 0 W/m 6,4 km/h (2 Bft) 100,00 %
04.07.2020 03:00 16,1 C 14,4 C 14,4 C 82 % 1017,4 hPa 0,0 l/m 0 min 0 min 0 W/m 6,4 km/h (2 Bft) 100,00 %
04.07.2020 03:02 16,0 C 14,4 C 14,4 C 82 % 1017,3 hPa 0,0 l/m 0 min 0 min 0 W/m 12,9 km/h (3 Bft) 100,00 %
04.07.2020 03:04 16,0 C 14,4 C 14,4 C 82 % 1017,3 hPa 0,0 l/m 0 min 0 min 0 W/m 0,0 km/h (0 Bft) 100,00 %
04.07.2020 03:06 15,9 C 14,4 C 14,4 C 82 % 1017,3 hPa 0,0 l/m 0 min 0 min 0 W/m 12,9 km/h (3 Bft) 97,83 %
04.07.2020 03:08 15,9 C 14,4 C 14,4 C 82 % 1017,3 hPa 0,0 l/m 0 min 0 min 0 W/m 12,9 km/h (3 Bft) 100,00 %
04.07.2020 03:10 15,9 C 14,4 C 14,4 C 82 % 1017,3 hPa 0,0 l/m 0 min 0 min 0 W/m 6,4 km/h (2 Bft) 100,00 %
04.07.2020 03:12 15,9 C 14,4 C 14,4 C 82 % 1017,3 hPa 0,0 l/m 0 min 0 min 0 W/m 6,4 km/h (2 Bft) 100,00 %
04.07.2020 03:14 15,8 C 14,4 C 14,4 C 82 % 1017,3 hPa 0,0 l/m 0 min 0 min 0 W/m 6,4 km/h (2 Bft) 100,00 %
04.07.2020 03:16 15,8 C 14,4 C 13,9 C 83 % 1017,3 hPa 0,0 l/m 0 min 0 min 0 W/m 12,9 km/h (3 Bft) 100,00 %
04.07.2020 03:18 15,8 C 14,4 C 13,9 C 83 % 1017,3 hPa 0,0 l/m 0 min 0 min 0 W/m 3,2 km/h (1 Bft) 100,00 %
04.07.2020 03:20 15,7 C 14,4 C 13,9 C 83 % 1017,3 hPa 0,0 l/m 0 min 0 min 0 W/m 6,4 km/h (2 Bft) 100,00 %
04.07.2020 03:22 15,7 C 14,4 C 13,9 C 83 % 1017,2 hPa 0,0 l/m 0 min 0 min 0 W/m 6,4 km/h (2 Bft) 100,00 %
04.07.2020 03:24 15,7 C 14,4 C 13,9 C 83 % 1017,2 hPa 0,0 l/m 0 min 0 min 0 W/m 12,9 km/h (3 Bft) 100,00 %
04.07.2020 03:26 15,7 C 14,4 C 13,9 C 83 % 1017,2 hPa 0,0 l/m 0 min 0 min 0 W/m 12,9 km/h (3 Bft) 100,00 %
04.07.2020 03:28 15,6 C 14,4 C 13,9 C 83 % 1017,2 hPa 0,0 l/m 0 min 0 min 0 W/m 6,4 km/h (2 Bft) 100,00 %
04.07.2020 03:30 15,6 C 14,4 C 13,9 C 83 % 1017,3 hPa 0,0 l/m 0 min 0 min 0 W/m 6,4 km/h (2 Bft) 100,00 %
04.07.2020 03:32 15,6 C 13,9 C 13,9 C 83 % 1017,2 hPa 0,0 l/m 0 min 0 min 0 W/m 6,4 km/h (2 Bft) 97,87 %
04.07.2020 03:34 15,6 C 14,4 C 13,9 C 83 % 1017,2 hPa 0,0 l/m 0 min 0 min 0 W/m 12,9 km/h (3 Bft) 97,87 %
04.07.2020 03:36 15,5 C 13,9 C 13,9 C 83 % 1017,2 hPa 0,0 l/m 0 min 0 min 0 W/m 12,9 km/h (3 Bft) 97,87 %
04.07.2020 03:38 15,4 C 13,9 C 13,9 C 83 % 1017,2 hPa 0,0 l/m 0 min 0 min 0 W/m 6,4 km/h (2 Bft) 95,74 %
04.07.2020 03:40 15,4 C 13,9 C 13,9 C 84 % 1017,2 hPa 0,0 l/m 0 min 0 min 0 W/m 3,2 km/h (1 Bft) 97,87 %
04.07.2020 03:42 15,4 C 13,9 C 13,9 C 83 % 1017,2 hPa 0,0 l/m 0 min 0 min 0 W/m 12,9 km/h (3 Bft) 97,83 %
04.07.2020 03:44 15,4 C 14,4 C 13,9 C 83 % 1017,1 hPa 0,0 l/m 0 min 0 min 0 W/m 6,4 km/h (2 Bft) 95,74 %
04.07.2020 03:46 15,4 C 13,9 C 13,9 C 84 % 1017,1 hPa 0,0 l/m 0 min 0 min 0 W/m 0,0 km/h (0 Bft) 97,87 %
04.07.2020 03:48 15,3 C 13,9 C 13,9 C 84 % 1017,1 hPa 0,0 l/m 0 min 0 min 0 W/m 6,4 km/h (2 Bft) 97,87 %
04.07.2020 03:50 15,3 C 14,4 C 13,9 C 84 % 1017,1 hPa 0,0 l/m 0 min 0 min 0 W/m 12,9 km/h (3 Bft) 100,00 %
04.07.2020 03:52 15,3 C 14,4 C 13,9 C 84 % 1017,1 hPa 0,0 l/m 0 min 0 min 0 W/m 6,4 km/h (2 Bft) 97,87 %
04.07.2020 03:54 15,3 C 14,4 C 13,9 C 84 % 1017,1 hPa 0,0 l/m 0 min 0 min 0 W/m 6,4 km/h (2 Bft) 97,83 %
04.07.2020 03:56 15,3 C 14,4 C 13,9 C 84 % 1017,0 hPa 0,0 l/m 0 min 0 min 0 W/m 12,9 km/h (3 Bft) 97,87 %
04.07.2020 03:58 15,3 C 14,4 C 13,9 C 84 % 1017,0 hPa 0,0 l/m 0 min 0 min 0 W/m 12,9 km/h (3 Bft) 95,74 %
04.07.2020 04:00 15,3 C 14,4 C 13,9 C 84 % 1017,0 hPa 0,0 l/m 0 min 0 min 0 W/m 0,0 km/h (0 Bft) 91,49 %
04.07.2020 04:02 15,3 C 14,4 C 13,9 C 84 % 1017,1 hPa 0,0 l/m 0 min 0 min 0 W/m 6,4 km/h (2 Bft) 100,00 %
04.07.2020 04:04 15,3 C 14,4 C 13,9 C 84 % 1017,1 hPa 0,0 l/m 0 min 0 min 0 W/m 12,9 km/h (3 Bft) 95,74 %
04.07.2020 04:06 15,2 C 14,4 C 13,9 C 84 % 1017,0 hPa 0,0 l/m 0 min 0 min 0 W/m 6,4 km/h (2 Bft) 95,74 %
04.07.2020 04:08 15,2 C 14,4 C 13,9 C 85 % 1017,1 hPa 0,0 l/m 0 min 0 min 0 W/m 6,4 km/h (2 Bft) 95,74 %
04.07.2020 04:10 15,2 C 14,4 C 13,9 C 85 % 1017,0 hPa 0,0 l/m 0 min 0 min 0 W/m 12,9 km/h (3 Bft) 93,62 %
04.07.2020 04:12 15,2 C 13,9 C 13,9 C 85 % 1017,0 hPa 0,0 l/m 0 min 0 min 0 W/m 6,4 km/h (2 Bft) 95,74 %
04.07.2020 04:14 15,2 C 13,9 C 13,9 C 85 % 1017,0 hPa 0,0 l/m 0 min 0 min 0 W/m 0,0 km/h (0 Bft) 93,48 %
04.07.2020 04:16 15,2 C 13,9 C 13,9 C 85 % 1017,0 hPa 0,0 l/m 0 min 0 min 0 W/m 12,9 km/h (3 Bft) 95,74 %
04.07.2020 04:18 15,2 C 14,4 C 13,9 C 85 % 1017,0 hPa 0,0 l/m 0 min 0 min 0 W/m 6,4 km/h (2 Bft) 95,74 %
04.07.2020 04:20 15,2 C 14,4 C 13,9 C 85 % 1017,0 hPa 0,0 l/m 0 min 0 min 0 W/m 3,2 km/h (1 Bft) 95,74 %
04.07.2020 04:22 15,2 C 14,4 C 13,9 C 85 % 1017,0 hPa 0,0 l/m 0 min 0 min 0 W/m 0,0 km/h (0 Bft) 95,74 %
04.07.2020 04:24 15,2 C 14,4 C 13,9 C 85 % 1017,0 hPa 0,0 l/m 0 min 0 min 0 W/m 3,2 km/h (1 Bft) 93,48 %
04.07.2020 04:26 15,2 C 14,4 C 13,9 C 85 % 1017,0 hPa 0,0 l/m 0 min 0 min 0 W/m 12,9 km/h (3 Bft) 95,74 %
04.07.2020 04:28 15,2 C 14,4 C 13,9 C 85 % 1017,0 hPa 0,0 l/m 0 min 0 min 0 W/m 12,9 km/h (3 Bft) 97,87 %
04.07.2020 04:30 15,2 C 14,4 C 13,9 C 85 % 1017,0 hPa 0,0 l/m 0 min 0 min 0 W/m 3,2 km/h (1 Bft) 95,74 %
04.07.2020 04:32 15,2 C 14,4 C 13,9 C 85 % 1016,9 hPa 0,0 l/m 0 min 0 min 0 W/m 12,9 km/h (3 Bft) 95,74 %
04.07.2020 04:34 15,2 C 14,4 C 13,9 C 85 % 1017,0 hPa 0,0 l/m 0 min 0 min 0 W/m 6,4 km/h (2 Bft) 95,74 %
04.07.2020 04:36 15,2 C 14,4 C 13,9 C 85 % 1016,9 hPa 0,0 l/m 0 min 0 min 0 W/m 0,0 km/h (0 Bft) 97,83 %
04.07.2020 04:38 15,2 C 14,4 C 13,9 C 85 % 1016,8 hPa 0,0 l/m 0 min 0 min 0 W/m 6,4 km/h (2 Bft) 95,74 %
04.07.2020 04:40 15,2 C 14,4 C 13,9 C 85 % 1016,9 hPa 0,0 l/m 0 min 0 min 0 W/m 16,1 km/h (3 Bft) 97,87 %
04.07.2020 04:42 15,2 C 14,4 C 13,9 C 85 % 1016,8 hPa 0,0 l/m 0 min 0 min 0 W/m 12,9 km/h (3 Bft) 95,74 %
04.07.2020 04:44 15,2 C 14,4 C 13,9 C 86 % 1016,8 hPa 0,0 l/m 0 min 0 min 0 W/m 16,1 km/h (3 Bft) 93,62 %
04.07.2020 04:46 15,1 C 14,4 C 13,9 C 86 % 1016,9 hPa 0,0 l/m 0 min 0 min 0 W/m 12,9 km/h (3 Bft) 95,74 %
04.07.2020 04:48 15,2 C 14,4 C 13,9 C 86 % 1016,9 hPa 0,0 l/m 0 min 0 min 0 W/m 6,4 km/h (2 Bft) 97,78 %
04.07.2020 04:50 15,1 C 14,4 C 13,9 C 86 % 1016,8 hPa 0,0 l/m 0 min 0 min 0 W/m 0,0 km/h (0 Bft) 95,74 %
04.07.2020 04:52 15,2 C 14,4 C 13,9 C 86 % 1016,8 hPa 0,0 l/m 0 min 0 min 0 W/m 0,0 km/h (0 Bft) 95,74 %
04.07.2020 04:54 15,2 C 14,4 C 13,9 C 86 % 1016,8 hPa 0,0 l/m 0 min 0 min 0 W/m 0,0 km/h (0 Bft) 95,74 %
04.07.2020 04:56 15,1 C 14,4 C 13,9 C 86 % 1016,8 hPa 0,0 l/m 0 min 0 min 0 W/m 16,1 km/h (3 Bft) 93,62 %
04.07.2020 04:58 15,2 C 14,4 C 13,9 C 86 % 1016,8 hPa 0,0 l/m 0 min 0 min 0 W/m 12,9 km/h (3 Bft) 95,74 %
04.07.2020 05:00 15,2 C 14,4 C 13,9 C 86 % 1016,8 hPa 0,0 l/m 0 min 0 min 0 W/m 19,3 km/h (3 Bft) 93,48 %
04.07.2020 05:02 15,1 C 14,4 C 13,9 C 86 % 1016,8 hPa 0,0 l/m 0 min 0 min 0 W/m 12,9 km/h (3 Bft) 89,36 %
04.07.2020 05:04 15,1 C 14,4 C 13,9 C 86 % 1016,7 hPa 0,0 l/m 0 min 0 min 0 W/m 6,4 km/h (2 Bft) 97,87 %
04.07.2020 05:06 15,2 C 14,4 C 13,9 C 86 % 1016,8 hPa 0,0 l/m 0 min 0 min 0 W/m 0,0 km/h (0 Bft) 95,74 %
04.07.2020 05:08 15,1 C 14,4 C 13,9 C 86 % 1016,8 hPa 0,0 l/m 0 min 0 min 0 W/m 12,9 km/h (3 Bft) 97,87 %
04.07.2020 05:10 15,2 C 14,4 C 13,9 C 86 % 1016,7 hPa 0,0 l/m 0 min 0 min 0 W/m 6,4 km/h (2 Bft) 97,87 %
04.07.2020 05:12 15,2 C 14,4 C 13,9 C 86 % 1016,8 hPa 0,0 l/m 0 min 0 min 0 W/m 12,9 km/h (3 Bft) 93,48 %
04.07.2020 05:14 15,2 C 14,4 C 13,9 C 86 % 1016,8 hPa 0,0 l/m 0 min 0 min 0 W/m 6,4 km/h (2 Bft) 95,74 %
04.07.2020 05:16 15,2 C 14,4 C 13,9 C 86 % 1016,7 hPa 0,0 l/m 0 min 0 min 0 W/m 3,2 km/h (1 Bft) 97,87 %
04.07.2020 05:18 15,2 C 14,4 C 13,9 C 86 % 1016,7 hPa 0,0 l/m 0 min 0 min 0 W/m 0,0 km/h (0 Bft) 97,87 %
04.07.2020 05:20 15,2 C 14,4 C 13,9 C 86 % 1016,7 hPa 0,0 l/m 0 min 0 min 0 W/m 0,0 km/h (0 Bft) 93,62 %
04.07.2020 05:22 15,2 C 14,4 C 13,9 C 86 % 1016,7 hPa 0,0 l/m 0 min 0 min 0 W/m 12,9 km/h (3 Bft) 95,65 %
04.07.2020 05:24 15,2 C 14,4 C 13,9 C 86 % 1016,7 hPa 0,0 l/m 0 min 0 min 0 W/m 12,9 km/h (3 Bft) 95,74 %
04.07.2020 05:26 15,2 C 14,4 C 13,9 C 87 % 1016,7 hPa 0,0 l/m 0 min 0 min 0 W/m 12,9 km/h (3 Bft) 97,87 %
04.07.2020 05:28 15,2 C 14,4 C 13,9 C 87 % 1016,7 hPa 0,0 l/m 0 min 0 min 0 W/m 6,4 km/h (2 Bft) 100,00 %
04.07.2020 05:30 15,2 C 14,4 C 13,9 C 87 % 1016,7 hPa 0,0 l/m 0 min 2 min 0 W/m 16,1 km/h (3 Bft) 100,00 %
04.07.2020 05:32 15,2 C 13,9 C 13,9 C 87 % 1016,7 hPa 0,0 l/m 0 min 0 min 0 W/m 0,0 km/h (0 Bft) 100,00 %
04.07.2020 05:34 15,1 C 13,9 C 13,9 C 87 % 1016,7 hPa 0,0 l/m 0 min 2 min 0 W/m 0,0 km/h (0 Bft) 100,00 %
04.07.2020 05:36 15,1 C 13,9 C 13,9 C 87 % 1016,7 hPa 0,0 l/m 0 min 2 min 0 W/m 0,0 km/h (0 Bft) 100,00 %
04.07.2020 05:38 15,2 C 13,9 C 13,9 C 87 % 1016,7 hPa 0,0 l/m 0 min 2 min 0 W/m 0,0 km/h (0 Bft) 100,00 %
04.07.2020 05:40 15,2 C 13,9 C 13,9 C 87 % 1016,6 hPa 0,0 l/m 0 min 0 min 0 W/m 6,4 km/h (2 Bft) 97,87 %
04.07.2020 05:42 15,2 C 13,9 C 13,9 C 87 % 1016,7 hPa 0,0 l/m 0 min 0 min 0 W/m 0,0 km/h (0 Bft) 100,00 %
04.07.2020 05:44 15,2 C 13,9 C 13,9 C 87 % 1016,7 hPa 0,0 l/m 0 min 0 min 0 W/m 0,0 km/h (0 Bft) 97,87 %
04.07.2020 05:46 15,2 C 13,9 C 13,9 C 87 % 1016,6 hPa 0,0 l/m 0 min 0 min 0 W/m 0,0 km/h (0 Bft) 100,00 %
04.07.2020 05:48 15,2 C 13,9 C 13,9 C 87 % 1016,6 hPa 0,0 l/m 0 min 0 min 0 W/m 0,0 km/h (0 Bft) 97,87 %
04.07.2020 05:50 15,2 C 13,9 C 13,9 C 87 % 1016,6 hPa 0,0 l/m 0 min 0 min 3 W/m 3,2 km/h (1 Bft) 100,00 %
04.07.2020 05:52 15,2 C 13,9 C 13,9 C 87 % 1016,6 hPa 0,0 l/m 0 min 0 min 5 W/m 12,9 km/h (3 Bft) 97,87 %
04.07.2020 05:54 15,2 C 13,9 C 13,9 C 87 % 1016,6 hPa 0,0 l/m 0 min 0 min 7 W/m 6,4 km/h (2 Bft) 100,00 %
04.07.2020 05:56 15,2 C 13,9 C 13,9 C 87 % 1016,6 hPa 0,0 l/m 0 min 0 min 8 W/m 6,4 km/h (2 Bft) 100,00 %
04.07.2020 05:58 15,1 C 13,9 C 13,9 C 87 % 1016,6 hPa 0,0 l/m 0 min 0 min 11 W/m 12,9 km/h (3 Bft) 100,00 %
04.07.2020 06:00 15,1 C 14,4 C 13,9 C 87 % 1016,6 hPa 0,0 l/m 0 min 0 min 12 W/m 6,4 km/h (2 Bft) 100,00 %
04.07.2020 06:02 15,1 C 14,4 C 13,9 C 87 % 1016,6 hPa 0,0 l/m 0 min 0 min 15 W/m 3,2 km/h (1 Bft) 95,74 %
04.07.2020 06:04 15,1 C 14,4 C 13,9 C 87 % 1016,5 hPa 0,0 l/m 0 min 0 min 18 W/m 6,4 km/h (2 Bft) 100,00 %
04.07.2020 06:08 15,1 C 14,4 C 13,9 C 87 % 1016,5 hPa 0,0 l/m 0 min 0 min 19 W/m 12,9 km/h (3 Bft) 98,81 %
04.07.2020 06:10 15,1 C 14,4 C 13,9 C 87 % 1016,6 hPa 0,0 l/m 0 min 0 min 19 W/m 6,4 km/h (2 Bft) 97,87 %
04.07.2020 06:12 15,1 C 14,4 C 13,9 C 87 % 1016,5 hPa 0,0 l/m 0 min 0 min 17 W/m 0,0 km/h (0 Bft) 100,00 %
04.07.2020 06:14 15,1 C 14,4 C 13,9 C 87 % 1016,5 hPa 0,0 l/m 0 min 0 min 14 W/m 0,0 km/h (0 Bft) 97,87 %
04.07.2020 06:16 15,1 C 14,4 C 13,9 C 87 % 1016,4 hPa 0,0 l/m 0 min 0 min 12 W/m 3,2 km/h (1 Bft) 100,00 %
04.07.2020 06:18 15,1 C 14,4 C 13,9 C 87 % 1016,4 hPa 0,0 l/m 0 min 0 min 11 W/m 12,9 km/h (3 Bft) 100,00 %
04.07.2020 06:20 15,1 C 14,4 C 13,9 C 87 % 1016,5 hPa 0,0 l/m 0 min 0 min 11 W/m 6,4 km/h (2 Bft) 100,00 %
04.07.2020 06:22 15,1 C 14,4 C 13,9 C 87 % 1016,4 hPa 0,0 l/m 0 min 0 min 11 W/m 0,0 km/h (0 Bft) 95,74 %
04.07.2020 06:24 15,1 C 14,4 C 13,9 C 87 % 1016,4 hPa 0,0 l/m 0 min 0 min 12 W/m 0,0 km/h (0 Bft) 97,83 %
04.07.2020 06:26 15,1 C 14,4 C 13,9 C 87 % 1016,3 hPa 0,0 l/m 0 min 0 min 14 W/m 3,2 km/h (1 Bft) 97,87 %
04.07.2020 06:28 15,1 C 14,4 C 13,9 C 87 % 1016,3 hPa 0,0 l/m 0 min 0 min 15 W/m 0,0 km/h (0 Bft) 95,74 %
04.07.2020 06:30 15,1 C 14,4 C 13,9 C 87 % 1016,3 hPa 0,0 l/m 0 min 0 min 17 W/m 3,2 km/h (1 Bft) 95,74 %
04.07.2020 06:32 15,1 C 14,4 C 13,9 C 87 % 1016,3 hPa 0,0 l/m 0 min 0 min 20 W/m 6,4 km/h (2 Bft) 97,87 %
04.07.2020 06:34 15,1 C 14,4 C 13,9 C 87 % 1016,3 hPa 0,0 l/m 0 min 0 min 24 W/m 3,2 km/h (1 Bft) 97,87 %
04.07.2020 06:36 15,1 C 14,4 C 13,9 C 87 % 1016,3 hPa 0,0 l/m 0 min 0 min 26 W/m 0,0 km/h (0 Bft) 93,48 %
04.07.2020 06:38 15,1 C 14,4 C 14,4 C 87 % 1016,3 hPa 0,0 l/m 0 min 0 min 28 W/m 0,0 km/h (0 Bft) 97,87 %
04.07.2020 06:40 15,2 C 14,4 C 14,4 C 87 % 1016,3 hPa 0,0 l/m 0 min 0 min 30 W/m 0,0 km/h (0 Bft) 97,87 %
04.07.2020 06:42 15,2 C 15,0 C 14,4 C 87 % 1016,2 hPa 0,0 l/m 0 min 0 min 35 W/m 0,0 km/h (0 Bft) 97,87 %
04.07.2020 06:44 15,2 C 15,0 C 14,4 C 87 % 1016,3 hPa 0,0 l/m 0 min 0 min 39 W/m 6,4 km/h (2 Bft) 97,87 %
04.07.2020 06:46 15,2 C 15,0 C 14,4 C 87 % 1016,2 hPa 0,0 l/m 0 min 0 min 43 W/m 3,2 km/h (1 Bft) 97,87 %
04.07.2020 06:48 15,2 C 15,0 C 14,4 C 87 % 1016,2 hPa 0,0 l/m 0 min 0 min 44 W/m 3,2 km/h (1 Bft) 97,83 %
04.07.2020 06:50 15,2 C 15,0 C 14,4 C 87 % 1016,2 hPa 0,0 l/m 0 min 0 min 41 W/m 0,0 km/h (0 Bft) 97,87 %
04.07.2020 06:52 15,2 C 15,0 C 14,4 C 87 % 1016,2 hPa 0,0 l/m 0 min 0 min 38 W/m 3,2 km/h (1 Bft) 97,87 %
04.07.2020 06:54 15,2 C 15,0 C 14,4 C 87 % 1016,2 hPa 0,0 l/m 0 min 0 min 36 W/m 6,4 km/h (2 Bft) 95,74 %
04.07.2020 06:56 15,2 C 15,0 C 14,4 C 87 % 1016,1 hPa 0,0 l/m 0 min 0 min 33 W/m 12,9 km/h (3 Bft) 97,87 %
04.07.2020 06:58 15,2 C 15,0 C 14,4 C 87 % 1016,2 hPa 0,0 l/m 0 min 0 min 34 W/m 3,2 km/h (1 Bft) 97,87 %
04.07.2020 07:00 15,3 C 15,0 C 14,4 C 87 % 1016,2 hPa 0,0 l/m 0 min 0 min 34 W/m 3,2 km/h (1 Bft) 97,83 %
04.07.2020 07:02 15,3 C 15,0 C 14,4 C 87 % 1016,2 hPa 0,0 l/m 0 min 0 min 35 W/m 0,0 km/h (0 Bft) 97,87 %
04.07.2020 07:04 15,3 C 15,0 C 14,4 C 87 % 1016,2 hPa 0,0 l/m 0 min 0 min 38 W/m 0,0 km/h (0 Bft) 95,74 %
04.07.2020 07:06 15,3 C 15,0 C 14,4 C 86 % 1016,1 hPa 0,0 l/m 0 min 0 min 42 W/m 12,9 km/h (3 Bft) 97,87 %
04.07.2020 07:08 15,3 C 15,0 C 14,4 C 86 % 1016,2 hPa 0,0 l/m 0 min 0 min 46 W/m 12,9 km/h (3 Bft) 95,74 %
04.07.2020 07:10 15,4 C 15,6 C 14,4 C 86 % 1016,1 hPa 0,0 l/m 0 min 0 min 50 W/m 12,9 km/h (3 Bft) 97,83 %
04.07.2020 07:12 15,4 C 15,6 C 14,4 C 86 % 1016,1 hPa 0,0 l/m 0 min 0 min 56 W/m 6,4 km/h (2 Bft) 97,87 %
04.07.2020 07:14 15,4 C 15,6 C 14,4 C 86 % 1016,1 hPa 0,0 l/m 0 min 0 min 60 W/m 12,9 km/h (3 Bft) 100,00 %
04.07.2020 07:16 15,4 C 15,6 C 14,4 C 86 % 1016,1 hPa 0,0 l/m 0 min 0 min 63 W/m 16,1 km/h (3 Bft) 100,00 %
04.07.2020 07:18 15,4 C 15,6 C 15,0 C 86 % 1016,1 hPa 0,0 l/m 0 min 0 min 64 W/m 12,9 km/h (3 Bft) 97,87 %
04.07.2020 07:20 15,5 C 15,6 C 15,0 C 86 % 1016,1 hPa 0,0 l/m 0 min 0 min 66 W/m 6,4 km/h (2 Bft) 95,74 %
04.07.2020 07:22 15,5 C 15,6 C 15,0 C 86 % 1016,1 hPa 0,0 l/m 0 min 0 min 71 W/m 12,9 km/h (3 Bft) 97,83 %
04.07.2020 07:24 15,6 C 16,1 C 15,0 C 86 % 1016,1 hPa 0,0 l/m 0 min 0 min 79 W/m 9,7 km/h (2 Bft) 100,00 %
04.07.2020 07:26 15,6 C 16,1 C 15,0 C 86 % 1016,2 hPa 0,0 l/m 0 min 0 min 82 W/m 6,4 km/h (2 Bft) 93,62 %
04.07.2020 07:28 15,6 C 16,1 C 15,0 C 86 % 1016,1 hPa 0,0 l/m 0 min 0 min 84 W/m 12,9 km/h (3 Bft) 97,87 %
04.07.2020 07:30 15,7 C 16,1 C 15,0 C 85 % 1016,1 hPa 0,0 l/m 0 min 0 min 84 W/m 12,9 km/h (3 Bft) 97,87 %
04.07.2020 07:32 15,7 C 16,1 C 15,0 C 85 % 1016,1 hPa 0,0 l/m 0 min 0 min 84 W/m 16,1 km/h (3 Bft) 97,87 %
04.07.2020 07:34 15,8 C 16,1 C 15,0 C 85 % 1016,1 hPa 0,0 l/m 0 min 0 min 85 W/m 12,9 km/h (3 Bft) 97,83 %
04.07.2020 07:36 15,8 C 16,1 C 15,0 C 85 % 1016,1 hPa 0,0 l/m 0 min 0 min 82 W/m 16,1 km/h (3 Bft) 91,49 %
04.07.2020 07:38 15,8 C 16,1 C 15,0 C 85 % 1016,1 hPa 0,0 l/m 0 min 0 min 75 W/m 19,3 km/h (3 Bft) 95,74 %
04.07.2020 07:40 15,9 C 16,1 C 15,0 C 85 % 1016,2 hPa 0,0 l/m 0 min 0 min 64 W/m 16,1 km/h (3 Bft) 95,74 %
04.07.2020 07:42 15,9 C 16,1 C 15,0 C 84 % 1016,1 hPa 0,0 l/m 0 min 0 min 54 W/m 12,9 km/h (3 Bft) 95,74 %
04.07.2020 07:44 16,0 C 16,1 C 15,0 C 84 % 1016,2 hPa 0,0 l/m 0 min 0 min 49 W/m 12,9 km/h (3 Bft) 95,74 %
04.07.2020 07:46 16,0 C 16,1 C 15,0 C 84 % 1016,1 hPa 0,0 l/m 0 min 0 min 51 W/m 16,1 km/h (3 Bft) 95,65 %
04.07.2020 07:48 16,1 C 16,1 C 15,0 C 84 % 1016,2 hPa 0,0 l/m 0 min 0 min 54 W/m 9,7 km/h (2 Bft) 93,62 %
04.07.2020 07:50 16,1 C 16,1 C 15,0 C 84 % 1016,2 hPa 0,0 l/m 0 min 0 min 54 W/m 12,9 km/h (3 Bft) 95,74 %
04.07.2020 07:52 16,1 C 16,1 C 15,0 C 84 % 1016,2 hPa 0,0 l/m 0 min 0 min 56 W/m 12,9 km/h (3 Bft) 95,74 %
04.07.2020 07:54 16,2 C 16,1 C 15,0 C 84 % 1016,1 hPa 0,0 l/m 0 min 0 min 57 W/m 12,9 km/h (3 Bft) 95,74 %
04.07.2020 07:56 16,2 C 16,1 C 15,0 C 83 % 1016,1 hPa 0,0 l/m 0 min 0 min 61 W/m 16,1 km/h (3 Bft) 95,74 %
04.07.2020 07:58 16,2 C 16,1 C 15,0 C 83 % 1016,2 hPa 0,0 l/m 0 min 0 min 60 W/m 9,7 km/h (2 Bft) 93,48 %
04.07.2020 08:00 16,3 C 16,1 C 15,0 C 83 % 1016,1 hPa 0,0 l/m 0 min 0 min 56 W/m 19,3 km/h (3 Bft) 95,74 %
04.07.2020 08:02 16,3 C 16,1 C 15,0 C 83 % 1016,1 hPa 0,0 l/m 0 min 0 min 53 W/m 6,4 km/h (2 Bft) 95,74 %
04.07.2020 08:04 16,3 C 16,1 C 15,0 C 83 % 1016,1 hPa 0,0 l/m 0 min 0 min 55 W/m 12,9 km/h (3 Bft) 93,62 %
04.07.2020 08:06 16,3 C 16,1 C 15,0 C 83 % 1016,1 hPa 0,0 l/m 0 min 0 min 60 W/m 12,9 km/h (3 Bft) 93,62 %
04.07.2020 08:08 16,4 C 16,1 C 15,0 C 83 % 1016,1 hPa 0,0 l/m 0 min 0 min 63 W/m 16,1 km/h (3 Bft) 95,65 %
04.07.2020 08:10 16,4 C 16,1 C 15,6 C 83 % 1016,1 hPa 0,0 l/m 0 min 0 min 69 W/m 16,1 km/h (3 Bft) 95,74 %
04.07.2020 08:12 16,4 C 16,7 C 15,6 C 83 % 1016,1 hPa 0,0 l/m 0 min 0 min 75 W/m 6,4 km/h (2 Bft) 95,74 %
04.07.2020 08:14 16,4 C 16,7 C 15,6 C 82 % 1016,1 hPa 0,0 l/m 0 min 0 min 77 W/m 12,9 km/h (3 Bft) 95,74 %
04.07.2020 08:16 16,5 C 16,7 C 15,6 C 82 % 1016,1 hPa 0,0 l/m 0 min 0 min 76 W/m 16,1 km/h (3 Bft) 95,74 %
04.07.2020 08:18 16,5 C 16,7 C 15,6 C 82 % 1016,0 hPa 0,0 l/m 0 min 0 min 72 W/m 6,4 km/h (2 Bft) 95,74 %
04.07.2020 08:20 16,6 C 16,7 C 15,6 C 82 % 1016,0 hPa 0,0 l/m 0 min 0 min 72 W/m 16,1 km/h (3 Bft) 95,65 %
04.07.2020 08:22 16,6 C 16,7 C 15,6 C 82 % 1016,1 hPa 0,0 l/m 0 min 0 min 73 W/m 22,5 km/h (4 Bft) 97,87 %
04.07.2020 08:24 16,6 C 16,7 C 15,6 C 82 % 1016,1 hPa 0,0 l/m 0 min 0 min 74 W/m 12,9 km/h (3 Bft) 97,87 %
04.07.2020 08:26 16,7 C 16,7 C 15,6 C 82 % 1016,0 hPa 0,0 l/m 0 min 0 min 75 W/m 16,1 km/h (3 Bft) 97,87 %
04.07.2020 08:28 16,7 C 16,7 C 15,6 C 82 % 1016,1 hPa 0,0 l/m 0 min 0 min 82 W/m 12,9 km/h (3 Bft) 97,87 %
04.07.2020 08:30 16,7 C 16,7 C 15,6 C 82 % 1016,1 hPa 0,0 l/m 0 min 0 min 90 W/m 22,5 km/h (4 Bft) 97,87 %
04.07.2020 08:32 16,7 C 16,7 C 16,1 C 81 % 1016,1 hPa 0,0 l/m 0 min 0 min 103 W/m 12,9 km/h (3 Bft) 95,65 %
04.07.2020 08:34 16,8 C 17,2 C 16,1 C 81 % 1016,1 hPa 0,0 l/m 0 min 2 min 113 W/m 16,1 km/h (3 Bft) 95,74 %
04.07.2020 08:36 16,8 C 17,2 C 16,1 C 82 % 1016,1 hPa 0,0 l/m 0 min 2 min 117 W/m 19,3 km/h (3 Bft) 100,00 %
04.07.2020 08:38 16,9 C 17,2 C 16,1 C 82 % 1015,9 hPa 0,0 l/m 0 min 0 min 127 W/m 22,5 km/h (4 Bft) 93,62 %
04.07.2020 08:40 16,9 C 17,2 C 16,1 C 81 % 1015,9 hPa 0,0 l/m 0 min 0 min 132 W/m 12,9 km/h (3 Bft) 100,00 %
04.07.2020 08:42 16,9 C 17,2 C 16,1 C 81 % 1016,0 hPa 0,0 l/m 0 min 0 min 134 W/m 16,1 km/h (3 Bft) 97,87 %
04.07.2020 08:44 17,0 C 17,2 C 16,1 C 81 % 1016,0 hPa 0,0 l/m 0 min 0 min 137 W/m 12,9 km/h (3 Bft) 100,00 %
04.07.2020 08:46 17,1 C 17,2 C 16,1 C 81 % 1015,9 hPa 0,0 l/m 0 min 0 min 139 W/m 12,9 km/h (3 Bft) 97,87 %
04.07.2020 08:48 17,1 C 17,8 C 16,1 C 81 % 1016,0 hPa 0,0 l/m 0 min 0 min 142 W/m 12,9 km/h (3 Bft) 100,00 %
04.07.2020 08:50 17,1 C 17,8 C 16,1 C 81 % 1015,9 hPa 0,0 l/m 0 min 0 min 130 W/m 12,9 km/h (3 Bft) 100,00 %
04.07.2020 08:52 17,2 C 17,8 C 16,1 C 81 % 1015,9 hPa 0,0 l/m 0 min 0 min 115 W/m 12,9 km/h (3 Bft) 100,00 %
04.07.2020 08:54 17,2 C 17,8 C 16,1 C 81 % 1015,8 hPa 0,0 l/m 0 min 0 min 104 W/m 16,1 km/h (3 Bft) 100,00 %
04.07.2020 08:56 17,3 C 17,8 C 16,1 C 81 % 1015,9 hPa 0,0 l/m 0 min 0 min 96 W/m 19,3 km/h (3 Bft) 100,00 %
04.07.2020 08:58 17,3 C 17,2 C 16,1 C 80 % 1015,9 hPa 0,0 l/m 0 min 0 min 89 W/m 16,1 km/h (3 Bft) 100,00 %
04.07.2020 09:00 17,3 C 17,8 C 16,1 C 80 % 1015,9 hPa 0,0 l/m 0 min 0 min 94 W/m 9,7 km/h (2 Bft) 97,87 %
04.07.2020 09:02 17,4 C 17,8 C 16,1 C 80 % 1015,9 hPa 0,0 l/m 0 min 0 min 100 W/m 16,1 km/h (3 Bft) 95,74 %
04.07.2020 09:04 17,4 C 17,8 C 16,1 C 80 % 1015,8 hPa 0,0 l/m 0 min 0 min 111 W/m 16,1 km/h (3 Bft) 97,87 %
04.07.2020 09:06 17,4 C 17,8 C 16,1 C 80 % 1015,9 hPa 0,0 l/m 0 min 0 min 130 W/m 19,3 km/h (3 Bft) 97,83 %
04.07.2020 09:08 17,5 C 17,8 C 16,7 C 79 % 1015,8 hPa 0,0 l/m 0 min 0 min 153 W/m 16,1 km/h (3 Bft) 97,87 %
04.07.2020 09:10 17,6 C 18,3 C 16,7 C 79 % 1015,8 hPa 0,0 l/m 0 min 0 min 150 W/m 22,5 km/h (4 Bft) 97,87 %
04.07.2020 09:12 17,6 C 18,3 C 16,7 C 79 % 1015,8 hPa 0,0 l/m 0 min 0 min 159 W/m 16,1 km/h (3 Bft) 95,74 %
04.07.2020 09:14 17,7 C 18,3 C 16,7 C 79 % 1015,8 hPa 0,0 l/m 0 min 0 min 185 W/m 22,5 km/h (4 Bft) 95,74 %
04.07.2020 09:16 17,7 C 18,9 C 17,2 C 78 % 1015,8 hPa 0,0 l/m 0 min 0 min 200 W/m 19,3 km/h (3 Bft) 97,87 %
04.07.2020 09:18 17,8 C 18,9 C 17,2 C 78 % 1015,7 hPa 0,0 l/m 0 min 0 min 224 W/m 12,9 km/h (3 Bft) 97,83 %
04.07.2020 09:20 17,9 C 19,4 C 17,2 C 78 % 1015,7 hPa 0,0 l/m 2 min 0 min 269 W/m 25,7 km/h (4 Bft) 95,74 %
04.07.2020 09:22 17,9 C 20,0 C 17,8 C 78 % 1015,7 hPa 0,0 l/m 2 min 0 min 351 W/m 25,7 km/h (4 Bft) 97,87 %
04.07.2020 09:24 18,1 C 20,0 C 17,8 C 78 % 1015,7 hPa 0,0 l/m 0 min 0 min 257 W/m 16,1 km/h (3 Bft) 95,74 %
04.07.2020 09:26 18,2 C 19,4 C 17,8 C 77 % 1015,8 hPa 0,0 l/m 0 min 0 min 247 W/m 22,5 km/h (4 Bft) 97,87 %
04.07.2020 09:28 18,3 C 19,4 C 17,8 C 77 % 1015,7 hPa 0,0 l/m 0 min 0 min 221 W/m 19,3 km/h (3 Bft) 97,87 %
04.07.2020 09:30 18,4 C 19,4 C 17,8 C 76 % 1015,6 hPa 0,0 l/m 0 min 0 min 220 W/m 32,2 km/h (5 Bft) 95,65 %
04.07.2020 09:32 18,4 C 19,4 C 17,8 C 75 % 1015,6 hPa 0,0 l/m 0 min 0 min 267 W/m 29,0 km/h (5 Bft) 97,87 %
04.07.2020 09:34 18,6 C 20,0 C 18,3 C 76 % 1015,6 hPa 0,0 l/m 2 min 0 min 312 W/m 12,9 km/h (3 Bft) 97,87 %
04.07.2020 09:36 18,6 C 20,0 C 18,3 C 76 % 1015,7 hPa 0,0 l/m 0 min 0 min 273 W/m 16,1 km/h (3 Bft) 97,87 %
04.07.2020 09:38 18,7 C 20,0 C 18,3 C 76 % 1015,7 hPa 0,0 l/m 0 min 0 min 267 W/m 29,0 km/h (5 Bft) 97,87 %
04.07.2020 09:40 18,8 C 19,4 C 18,3 C 74 % 1015,7 hPa 0,0 l/m 0 min 0 min 260 W/m 38,6 km/h (5 Bft) 95,74 %
04.07.2020 09:42 18,9 C 20,0 C 18,3 C 74 % 1015,7 hPa 0,0 l/m 0 min 0 min 259 W/m 22,5 km/h (4 Bft) 97,83 %
04.07.2020 09:44 18,9 C 20,0 C 18,3 C 75 % 1015,6 hPa 0,0 l/m 0 min 0 min 254 W/m 19,3 km/h (3 Bft) 97,87 %
04.07.2020 09:46 19,0 C 19,4 C 18,3 C 74 % 1015,6 hPa 0,0 l/m 0 min 0 min 246 W/m 32,2 km/h (5 Bft) 100,00 %
04.07.2020 09:48 19,1 C 19,4 C 17,8 C 73 % 1015,6 hPa 0,0 l/m 0 min 0 min 226 W/m 32,2 km/h (5 Bft) 93,62 %
04.07.2020 09:50 19,1 C 19,4 C 17,8 C 73 % 1015,7 hPa 0,0 l/m 0 min 0 min 238 W/m 25,7 km/h (4 Bft) 95,74 %
04.07.2020 09:52 19,1 C 19,4 C 17,8 C 73 % 1015,6 hPa 0,0 l/m 0 min 0 min 263 W/m 22,5 km/h (4 Bft) 97,87 %
04.07.2020 09:54 19,2 C 20,0 C 18,3 C 73 % 1015,7 hPa 0,0 l/m 0 min 0 min 298 W/m 25,7 km/h (4 Bft) 97,83 %
04.07.2020 09:56 19,2 C 20,0 C 18,3 C 73 % 1015,7 hPa 0,0 l/m 2 min 0 min 319 W/m 25,7 km/h (4 Bft) 97,87 %
04.07.2020 09:58 19,2 C 20,6 C 18,9 C 73 % 1015,7 hPa 0,0 l/m 2 min 0 min 325 W/m 32,2 km/h (5 Bft) 100,00 %
04.07.2020 10:00 19,3 C 20,6 C 18,9 C 74 % 1015,6 hPa 0,0 l/m 0 min 0 min 290 W/m 16,1 km/h (3 Bft) 100,00 %
04.07.2020 10:02 19,3 C 20,6 C 18,9 C 73 % 1015,7 hPa 0,0 l/m 0 min 0 min 298 W/m 22,5 km/h (4 Bft) 100,00 %
04.07.2020 10:04 19,4 C 20,6 C 18,9 C 73 % 1015,6 hPa 0,0 l/m 2 min 0 min 361 W/m 38,6 km/h (5 Bft) 100,00 %
04.07.2020 10:06 19,4 C 20,6 C 18,9 C 73 % 1015,7 hPa 0,0 l/m 2 min 0 min 365 W/m 22,5 km/h (4 Bft) 100,00 %
04.07.2020 10:08 19,6 C 21,1 C 19,4 C 73 % 1015,6 hPa 0,0 l/m 2 min 0 min 353 W/m 19,3 km/h (3 Bft) 97,87 %
04.07.2020 10:10 19,6 C 20,6 C 18,9 C 72 % 1015,6 hPa 0,0 l/m 0 min 0 min 300 W/m 35,4 km/h (5 Bft) 97,87 %
04.07.2020 10:12 19,6 C 20,6 C 18,9 C 72 % 1015,6 hPa 0,0 l/m 0 min 0 min 276 W/m 22,5 km/h (4 Bft) 97,87 %
04.07.2020 10:14 19,6 C 20,0 C 18,9 C 71 % 1015,6 hPa 0,0 l/m 0 min 0 min 292 W/m 35,4 km/h (5 Bft) 100,00 %
04.07.2020 10:16 19,6 C 20,0 C 18,9 C 71 % 1015,5 hPa 0,0 l/m 2 min 0 min 325 W/m 22,5 km/h (4 Bft) 93,62 %
04.07.2020 10:18 19,6 C 20,0 C 18,9 C 71 % 1015,5 hPa 0,0 l/m 0 min 0 min 306 W/m 29,0 km/h (5 Bft) 93,48 %
04.07.2020 10:20 19,6 C 20,6 C 18,9 C 71 % 1015,5 hPa 0,0 l/m 0 min 0 min 280 W/m 32,2 km/h (5 Bft) 97,87 %
04.07.2020 10:22 19,6 C 20,0 C 18,3 C 71 % 1015,7 hPa 0,0 l/m 0 min 0 min 248 W/m 29,0 km/h (5 Bft) 91,49 %
04.07.2020 10:24 19,6 C 19,4 C 18,3 C 71 % 1015,6 hPa 0,0 l/m 0 min 0 min 229 W/m 35,4 km/h (5 Bft) 97,87 %
04.07.2020 10:26 19,6 C 20,0 C 18,3 C 71 % 1015,5 hPa 0,0 l/m 0 min 0 min 223 W/m 35,4 km/h (5 Bft) 97,87 %
04.07.2020 10:28 19,6 C 20,0 C 18,3 C 71 % 1015,6 hPa 0,0 l/m 0 min 0 min 221 W/m 29,0 km/h (5 Bft) 95,65 %
04.07.2020 10:30 19,6 C 20,0 C 18,3 C 71 % 1015,5 hPa 0,0 l/m 0 min 0 min 210 W/m 22,5 km/h (4 Bft) 95,74 %
04.07.2020 10:32 19,6 C 19,4 C 18,3 C 71 % 1015,6 hPa 0,0 l/m 0 min 0 min 199 W/m 35,4 km/h (5 Bft) 98,11 %
04.07.2020 10:34 19,6 C 19,4 C 18,3 C 70 % 1015,5 hPa 0,0 l/m 0 min 0 min 199 W/m 38,6 km/h (5 Bft) 97,56 %
04.07.2020 10:36 19,6 C 19,4 C 18,3 C 70 % 1015,6 hPa 0,0 l/m 0 min 0 min 208 W/m 35,4 km/h (5 Bft) 95,74 %
04.07.2020 10:38 19,6 C 19,4 C 18,3 C 70 % 1015,5 hPa 0,0 l/m 0 min 0 min 245 W/m 38,6 km/h (5 Bft) 100,00 %
04.07.2020 10:40 19,6 C 20,0 C 18,3 C 70 % 1015,6 hPa 0,0 l/m 0 min 0 min 291 W/m 29,0 km/h (5 Bft) 95,65 %
04.07.2020 10:42 19,6 C 20,6 C 18,9 C 70 % 1015,5 hPa 0,0 l/m 0 min 0 min 337 W/m 32,2 km/h (5 Bft) 97,87 %
04.07.2020 10:44 19,6 C 20,6 C 18,9 C 71 % 1015,5 hPa 0,0 l/m 0 min 0 min 334 W/m 25,7 km/h (4 Bft) 91,49 %
04.07.2020 10:46 19,6 C 20,6 C 18,9 C 70 % 1015,6 hPa 0,0 l/m 0 min 0 min 319 W/m 45,1 km/h (6 Bft) 95,74 %
04.07.2020 10:48 19,7 C 21,7 C 20,0 C 70 % 1015,4 hPa 0,0 l/m 0 min 0 min 336 W/m 22,5 km/h (4 Bft) 95,74 %
04.07.2020 10:50 19,8 C 22,2 C 20,6 C 71 % 1015,4 hPa 0,0 l/m 2 min 0 min 377 W/m 25,7 km/h (4 Bft) 93,62 %
04.07.2020 10:52 19,9 C 22,8 C 21,1 C 71 % 1015,4 hPa 0,0 l/m 2 min 0 min 527 W/m 22,5 km/h (4 Bft) 93,48 %
04.07.2020 10:54 20,0 C 23,9 C 21,7 C 71 % 1015,3 hPa 0,0 l/m 2 min 0 min 598 W/m 25,7 km/h (4 Bft) 95,74 %
04.07.2020 10:56 20,1 C 22,2 C 21,1 C 70 % 1015,3 hPa 0,0 l/m 2 min 0 min 598 W/m 38,6 km/h (5 Bft) 95,74 %
04.07.2020 10:58 20,2 C 21,7 C 20,6 C 70 % 1015,3 hPa 0,0 l/m 2 min 0 min 524 W/m 29,0 km/h (5 Bft) 93,62 %
04.07.2020 11:00 20,3 C 22,2 C 20,6 C 69 % 1015,4 hPa 0,0 l/m 2 min 0 min 462 W/m 29,0 km/h (5 Bft) 95,74 %
04.07.2020 11:02 20,4 C 22,8 C 21,1 C 70 % 1015,3 hPa 0,0 l/m 2 min 0 min 462 W/m 25,7 km/h (4 Bft) 93,62 %
04.07.2020 11:04 20,4 C 22,2 C 20,6 C 69 % 1015,4 hPa 0,0 l/m 2 min 0 min 433 W/m 25,7 km/h (4 Bft) 95,65 %
04.07.2020 11:06 20,5 C 22,2 C 20,6 C 69 % 1015,3 hPa 0,0 l/m 2 min 0 min 419 W/m 25,7 km/h (4 Bft) 95,74 %
04.07.2020 11:08 20,6 C 22,2 C 20,6 C 69 % 1015,3 hPa 0,0 l/m 2 min 0 min 431 W/m 35,4 km/h (5 Bft) 95,74 %
04.07.2020 11:10 20,6 C 21,7 C 20,6 C 69 % 1015,4 hPa 0,0 l/m 2 min 0 min 388 W/m 45,1 km/h (6 Bft) 95,74 %
04.07.2020 11:12 20,6 C 21,7 C 20,0 C 68 % 1015,3 hPa 0,0 l/m 0 min 0 min 338 W/m 29,0 km/h (5 Bft) 95,74 %
04.07.2020 11:14 20,6 C 20,6 C 19,4 C 68 % 1015,4 hPa 0,0 l/m 0 min 0 min 300 W/m 38,6 km/h (5 Bft) 95,74 %
04.07.2020 11:16 20,6 C 20,6 C 19,4 C 68 % 1015,3 hPa 0,0 l/m 0 min 0 min 294 W/m 29,0 km/h (5 Bft) 95,65 %
04.07.2020 11:18 20,5 C 20,6 C 19,4 C 68 % 1015,4 hPa 0,0 l/m 0 min 0 min 303 W/m 25,7 km/h (4 Bft) 93,62 %
04.07.2020 11:20 20,4 C 20,6 C 19,4 C 68 % 1015,4 hPa 0,0 l/m 0 min 0 min 288 W/m 35,4 km/h (5 Bft) 95,74 %
04.07.2020 11:22 20,4 C 20,6 C 19,4 C 69 % 1015,4 hPa 0,0 l/m 0 min 0 min 278 W/m 35,4 km/h (5 Bft) 93,62 %
04.07.2020 11:24 20,4 C 20,6 C 19,4 C 69 % 1015,3 hPa 0,0 l/m 0 min 0 min 294 W/m 25,7 km/h (4 Bft) 93,62 %
04.07.2020 11:26 20,4 C 20,6 C 19,4 C 69 % 1015,3 hPa 0,0 l/m 0 min 0 min 316 W/m 25,7 km/h (4 Bft) 95,65 %
04.07.2020 11:28 20,4 C 20,6 C 19,4 C 69 % 1015,3 hPa 0,0 l/m 0 min 0 min 337 W/m 29,0 km/h (5 Bft) 93,62 %
04.07.2020 11:30 20,4 C 21,1 C 19,4 C 69 % 1015,3 hPa 0,0 l/m 0 min 0 min 378 W/m 35,4 km/h (5 Bft) 93,62 %
04.07.2020 11:32 20,4 C 21,1 C 19,4 C 69 % 1015,2 hPa 0,0 l/m 2 min 0 min 419 W/m 25,7 km/h (4 Bft) 92,45 %
04.07.2020 11:34 20,5 C 21,7 C 20,0 C 69 % 1015,2 hPa 0,0 l/m 2 min 0 min 467 W/m 29,0 km/h (5 Bft) 95,74 %
04.07.2020 11:36 20,5 C 21,7 C 20,0 C 69 % 1015,1 hPa 0,0 l/m 2 min 0 min 435 W/m 35,4 km/h (5 Bft) 93,48 %
04.07.2020 11:38 20,6 C 21,7 C 20,0 C 68 % 1015,2 hPa 0,0 l/m 2 min 0 min 438 W/m 41,8 km/h (6 Bft) 95,12 %
04.07.2020 11:40 20,6 C 22,2 C 20,6 C 69 % 1015,2 hPa 0,0 l/m 2 min 0 min 536 W/m 35,4 km/h (5 Bft) 95,74 %
04.07.2020 11:42 20,7 C 21,7 C 20,6 C 69 % 1015,1 hPa 0,0 l/m 2 min 0 min 475 W/m 45,1 km/h (6 Bft) 87,23 %
04.07.2020 11:44 20,7 C 22,2 C 20,6 C 69 % 1015,1 hPa 0,0 l/m 0 min 0 min 386 W/m 29,0 km/h (5 Bft) 95,74 %
04.07.2020 11:46 20,7 C 21,7 C 20,6 C 69 % 1015,1 hPa 0,0 l/m 0 min 0 min 349 W/m 35,4 km/h (5 Bft) 91,49 %
04.07.2020 11:48 20,8 C 21,7 C 20,6 C 69 % 1015,0 hPa 0,0 l/m 0 min 0 min 311 W/m 35,4 km/h (5 Bft) 93,62 %
04.07.2020 11:50 20,8 C 21,1 C 20,0 C 68 % 1015,1 hPa 0,0 l/m 0 min 0 min 314 W/m 25,7 km/h (4 Bft) 93,48 %
04.07.2020 11:52 20,8 C 21,1 C 20,0 C 68 % 1015,0 hPa 0,0 l/m 0 min 0 min 307 W/m 29,0 km/h (5 Bft) 93,62 %
04.07.2020 11:54 20,8 C 21,1 C 20,0 C 68 % 1015,1 hPa 0,0 l/m 0 min 0 min 264 W/m 35,4 km/h (5 Bft) 95,74 %
04.07.2020 11:56 20,8 C 20,6 C 20,0 C 68 % 1015,1 hPa 0,0 l/m 0 min 0 min 230 W/m 38,6 km/h (5 Bft) 95,74 %
04.07.2020 11:58 20,8 C 20,6 C 20,0 C 68 % 1015,1 hPa 0,0 l/m 0 min 0 min 218 W/m 35,4 km/h (5 Bft) 97,87 %
04.07.2020 12:00 20,7 C 20,0 C 19,4 C 69 % 1015,1 hPa 0,0 l/m 0 min 2 min 195 W/m 35,4 km/h (5 Bft) 97,87 %
04.07.2020 12:02 20,7 C 20,0 C 19,4 C 69 % 1015,1 hPa 0,0 l/m 0 min 0 min 161 W/m 29,0 km/h (5 Bft) 96,23 %
04.07.2020 12:04 20,7 C 20,0 C 19,4 C 69 % 1015,2 hPa 0,0 l/m 0 min 0 min 151 W/m 25,7 km/h (4 Bft) 95,74 %
04.07.2020 12:08 20,6 C 18,3 C 19,4 C 71 % 1015,1 hPa 0,0 l/m 0 min 4 min 167 W/m 25,7 km/h (4 Bft) 97,87 %
04.07.2020 12:10 20,6 C 16,1 C 18,3 C 72 % 1015,1 hPa 0,0 l/m 0 min 2 min 184 W/m 35,4 km/h (5 Bft) 100,00 %
04.07.2020 12:12 20,5 C 15,6 C 18,3 C 73 % 1015,2 hPa 0,0 l/m 0 min 2 min 192 W/m 38,6 km/h (5 Bft) 100,00 %
04.07.2020 12:14 20,4 C 16,1 C 17,8 C 74 % 1015,2 hPa 0,0 l/m 0 min 2 min 227 W/m 25,7 km/h (4 Bft) 100,00 %
04.07.2020 12:16 20,2 C 16,7 C 17,8 C 74 % 1015,2 hPa 0,0 l/m 0 min 2 min 262 W/m 25,7 km/h (4 Bft) 97,87 %
04.07.2020 12:18 20,2 C 17,2 C 17,8 C 76 % 1015,2 hPa 0,0 l/m 0 min 2 min 276 W/m 19,3 km/h (3 Bft) 100,00 %
04.07.2020 12:20 20,1 C 17,8 C 18,3 C 76 % 1015,2 hPa 0,0 l/m 0 min 2 min 287 W/m 16,1 km/h (3 Bft) 100,00 %
04.07.2020 12:22 20,1 C 18,3 C 18,3 C 77 % 1015,2 hPa 0,0 l/m 0 min 0 min 270 W/m 19,3 km/h (3 Bft) 100,00 %
04.07.2020 12:24 20,0 C 18,3 C 18,3 C 77 % 1015,2 hPa 0,0 l/m 0 min 0 min 232 W/m 19,3 km/h (3 Bft) 97,87 %
04.07.2020 12:26 19,9 C 18,3 C 18,3 C 77 % 1015,1 hPa 0,0 l/m 0 min 0 min 203 W/m 19,3 km/h (3 Bft) 97,87 %
04.07.2020 12:28 19,9 C 18,9 C 18,3 C 77 % 1015,2 hPa 0,0 l/m 0 min 0 min 185 W/m 22,5 km/h (4 Bft) 100,00 %
04.07.2020 12:30 19,9 C 18,3 C 18,3 C 76 % 1015,2 hPa 0,0 l/m 0 min 0 min 190 W/m 32,2 km/h (5 Bft) 100,00 %
04.07.2020 12:32 19,8 C 17,8 C 18,3 C 76 % 1015,2 hPa 0,0 l/m 0 min 2 min 208 W/m 25,7 km/h (4 Bft) 100,00 %
04.07.2020 12:34 19,8 C 17,8 C 18,3 C 76 % 1015,2 hPa 0,0 l/m 0 min 2 min 229 W/m 29,0 km/h (5 Bft) 100,00 %
04.07.2020 12:36 19,8 C 18,3 C 18,3 C 76 % 1015,2 hPa 0,0 l/m 0 min 2 min 273 W/m 22,5 km/h (4 Bft) 100,00 %
04.07.2020 12:38 19,7 C 19,4 C 18,3 C 76 % 1015,2 hPa 0,0 l/m 0 min 0 min 331 W/m 35,4 km/h (5 Bft) 100,00 %
04.07.2020 12:40 19,7 C 20,0 C 18,3 C 75 % 1015,0 hPa 0,0 l/m 0 min 0 min 360 W/m 29,0 km/h (5 Bft) 100,00 %
04.07.2020 12:42 19,8 C 20,6 C 18,9 C 76 % 1015,1 hPa 0,0 l/m 0 min 0 min 383 W/m 25,7 km/h (4 Bft) 95,74 %
04.07.2020 12:44 19,8 C 21,7 C 18,9 C 76 % 1015,0 hPa 0,0 l/m 2 min 0 min 434 W/m 19,3 km/h (3 Bft) 100,00 %
04.07.2020 12:46 19,9 C 22,2 C 19,4 C 76 % 1015,1 hPa 0,0 l/m 0 min 0 min 414 W/m 16,1 km/h (3 Bft) 100,00 %
04.07.2020 12:48 19,9 C 22,2 C 19,4 C 76 % 1015,1 hPa 0,0 l/m 0 min 0 min 344 W/m 22,5 km/h (4 Bft) 100,00 %
04.07.2020 12:50 20,1 C 21,7 C 19,4 C 76 % 1015,1 hPa 0,0 l/m 0 min 0 min 297 W/m 29,0 km/h (5 Bft) 100,00 %
04.07.2020 12:52 20,1 C 21,1 C 19,4 C 76 % 1015,1 hPa 0,0 l/m 0 min 0 min 271 W/m 19,3 km/h (3 Bft) 100,00 %
04.07.2020 12:54 20,2 C 21,7 C 19,4 C 75 % 1015,1 hPa 0,0 l/m 0 min 0 min 275 W/m 22,5 km/h (4 Bft) 100,00 %
04.07.2020 12:56 20,2 C 21,1 C 19,4 C 74 % 1015,1 hPa 0,0 l/m 0 min 0 min 287 W/m 29,0 km/h (5 Bft) 100,00 %
04.07.2020 12:58 20,3 C 21,1 C 19,4 C 73 % 1015,1 hPa 0,0 l/m 0 min 0 min 301 W/m 35,4 km/h (5 Bft) 100,00 %
04.07.2020 13:00 20,3 C 21,1 C 19,4 C 73 % 1015,0 hPa 0,0 l/m 0 min 0 min 340 W/m 29,0 km/h (5 Bft) 100,00 %
04.07.2020 13:02 20,4 C 21,7 C 19,4 C 73 % 1015,0 hPa 0,0 l/m 0 min 0 min 370 W/m 25,7 km/h (4 Bft) 100,00 %
04.07.2020 13:04 20,5 C 21,7 C 19,4 C 73 % 1015,1 hPa 0,0 l/m 0 min 0 min 314 W/m 25,7 km/h (4 Bft) 100,00 %
04.07.2020 13:06 20,6 C 21,1 C 19,4 C 73 % 1015,0 hPa 0,0 l/m 0 min 0 min 269 W/m 22,5 km/h (4 Bft) 100,00 %
04.07.2020 13:08 20,6 C 21,1 C 19,4 C 73 % 1015,1 hPa 0,0 l/m 0 min 0 min 233 W/m 22,5 km/h (4 Bft) 100,00 %
04.07.2020 13:10 20,6 C 21,1 C 19,4 C 73 % 1015,1 hPa 0,0 l/m 0 min 0 min 198 W/m 22,5 km/h (4 Bft) 100,00 %
04.07.2020 13:12 20,7 C 20,6 C 19,4 C 72 % 1015,1 hPa 0,0 l/m 0 min 0 min 152 W/m 25,7 km/h (4 Bft) 100,00 %
04.07.2020 13:14 20,7 C 20,6 C 19,4 C 72 % 1015,2 hPa 0,0 l/m 0 min 0 min 129 W/m 29,0 km/h (5 Bft) 100,00 %
04.07.2020 13:16 20,7 C 20,0 C 19,4 C 73 % 1015,2 hPa 0,0 l/m 0 min 0 min 126 W/m 25,7 km/h (4 Bft) 100,00 %
04.07.2020 13:18 20,7 C 20,6 C 19,4 C 73 % 1015,2 hPa 0,0 l/m 0 min 0 min 152 W/m 16,1 km/h (3 Bft) 95,74 %
04.07.2020 13:20 20,7 C 20,6 C 19,4 C 74 % 1015,1 hPa 0,0 l/m 0 min 0 min 188 W/m 32,2 km/h (5 Bft) 100,00 %
04.07.2020 13:22 20,7 C 20,6 C 19,4 C 74 % 1015,2 hPa 0,0 l/m 0 min 0 min 194 W/m 19,3 km/h (3 Bft) 100,00 %
04.07.2020 13:24 20,7 C 20,6 C 19,4 C 73 % 1015,2 hPa 0,0 l/m 0 min 0 min 215 W/m 19,3 km/h (3 Bft) 100,00 %
04.07.2020 13:26 20,7 C 20,6 C 19,4 C 73 % 1015,0 hPa 0,0 l/m 0 min 0 min 237 W/m 35,4 km/h (5 Bft) 100,00 %
04.07.2020 13:28 20,7 C 20,6 C 19,4 C 73 % 1014,9 hPa 0,0 l/m 0 min 0 min 262 W/m 19,3 km/h (3 Bft) 100,00 %
04.07.2020 13:30 20,7 C 21,1 C 19,4 C 74 % 1015,0 hPa 0,0 l/m 0 min 0 min 268 W/m 22,5 km/h (4 Bft) 97,87 %
04.07.2020 13:32 20,7 C 21,7 C 20,0 C 74 % 1014,9 hPa 0,0 l/m 0 min 0 min 277 W/m 22,5 km/h (4 Bft) 100,00 %
04.07.2020 13:34 20,8 C 21,7 C 20,0 C 74 % 1014,9 hPa 0,0 l/m 0 min 0 min 308 W/m 22,5 km/h (4 Bft) 100,00 %
04.07.2020 13:36 20,8 C 21,7 C 20,0 C 73 % 1014,9 hPa 0,0 l/m 0 min 0 min 340 W/m 29,0 km/h (5 Bft) 100,00 %
04.07.2020 13:38 20,8 C 21,7 C 20,0 C 73 % 1015,0 hPa 0,0 l/m 0 min 0 min 314 W/m 25,7 km/h (4 Bft) 100,00 %
04.07.2020 13:40 20,9 C 21,7 C 20,0 C 72 % 1015,0 hPa 0,0 l/m 0 min 0 min 306 W/m 25,7 km/h (4 Bft) 100,00 %
04.07.2020 13:42 20,9 C 21,7 C 20,0 C 73 % 1015,0 hPa 0,0 l/m 0 min 0 min 290 W/m 25,7 km/h (4 Bft) 97,87 %
04.07.2020 13:44 21,0 C 21,7 C 20,0 C 73 % 1014,9 hPa 0,0 l/m 0 min 0 min 284 W/m 22,5 km/h (4 Bft) 100,00 %
04.07.2020 13:46 21,1 C 21,7 C 20,6 C 73 % 1014,9 hPa 0,0 l/m 0 min 0 min 298 W/m 29,0 km/h (5 Bft) 97,83 %
04.07.2020 13:48 21,1 C 22,2 C 20,6 C 73 % 1014,8 hPa 0,0 l/m 0 min 0 min 330 W/m 22,5 km/h (4 Bft) 97,87 %
04.07.2020 13:50 21,1 C 22,2 C 20,6 C 73 % 1014,7 hPa 0,0 l/m 0 min 0 min 375 W/m 22,5 km/h (4 Bft) 100,00 %
04.07.2020 13:52 21,2 C 22,8 C 20,6 C 73 % 1014,8 hPa 0,0 l/m 0 min 0 min 340 W/m 22,5 km/h (4 Bft) 100,00 %
04.07.2020 13:54 21,3 C 22,8 C 20,6 C 73 % 1014,8 hPa 0,0 l/m 0 min 0 min 349 W/m 22,5 km/h (4 Bft) 93,62 %
04.07.2020 13:56 21,3 C 22,8 C 21,1 C 73 % 1014,8 hPa 0,0 l/m 2 min 0 min 439 W/m 25,7 km/h (4 Bft) 93,62 %
04.07.2020 13:58 21,4 C 22,8 C 21,1 C 72 % 1014,7 hPa 0,0 l/m 0 min 0 min 334 W/m 29,0 km/h (5 Bft) 97,83 %
04.07.2020 14:00 21,5 C 22,2 C 20,6 C 71 % 1014,7 hPa 0,0 l/m 0 min 0 min 298 W/m 38,6 km/h (5 Bft) 97,87 %
04.07.2020 14:02 21,6 C 22,2 C 20,6 C 71 % 1014,6 hPa 0,0 l/m 0 min 0 min 337 W/m 22,5 km/h (4 Bft) 97,87 %
04.07.2020 14:04 21,6 C 22,8 C 21,1 C 71 % 1014,7 hPa 0,0 l/m 0 min 0 min 351 W/m 19,3 km/h (3 Bft) 95,74 %
04.07.2020 14:06 21,7 C 22,8 C 21,1 C 72 % 1014,7 hPa 0,0 l/m 0 min 0 min 321 W/m 25,7 km/h (4 Bft) 93,62 %
04.07.2020 14:08 21,7 C 22,8 C 21,1 C 71 % 1014,7 hPa 0,0 l/m 0 min 0 min 363 W/m 25,7 km/h (4 Bft) 91,49 %
04.07.2020 14:10 21,8 C 22,8 C 21,1 C 71 % 1014,8 hPa 0,0 l/m 0 min 0 min 360 W/m 35,4 km/h (5 Bft) 91,30 %
04.07.2020 14:12 21,9 C 22,8 C 21,1 C 71 % 1014,7 hPa 0,0 l/m 0 min 0 min 317 W/m 29,0 km/h (5 Bft) 93,62 %
04.07.2020 14:14 21,9 C 22,2 C 21,1 C 70 % 1014,8 hPa 0,0 l/m 0 min 0 min 245 W/m 29,0 km/h (5 Bft) 93,62 %
04.07.2020 14:16 22,0 C 22,2 C 21,1 C 71 % 1014,7 hPa 0,0 l/m 0 min 0 min 184 W/m 25,7 km/h (4 Bft) 93,62 %
04.07.2020 14:18 22,0 C 21,7 C 20,6 C 71 % 1014,8 hPa 0,0 l/m 0 min 0 min 170 W/m 22,5 km/h (4 Bft) 93,62 %
04.07.2020 14:20 22,0 C 21,7 C 20,6 C 71 % 1014,7 hPa 0,0 l/m 0 min 0 min 174 W/m 32,2 km/h (5 Bft) 93,62 %
04.07.2020 14:22 22,0 C 21,7 C 20,6 C 71 % 1014,7 hPa 0,0 l/m 0 min 0 min 202 W/m 22,5 km/h (4 Bft) 91,30 %
04.07.2020 14:24 21,9 C 21,7 C 20,6 C 71 % 1014,9 hPa 0,0 l/m 0 min 0 min 217 W/m 29,0 km/h (5 Bft) 93,62 %
04.07.2020 14:26 21,9 C 21,7 C 20,6 C 70 % 1014,7 hPa 0,0 l/m 0 min 0 min 192 W/m 35,4 km/h (5 Bft) 91,49 %
04.07.2020 14:28 21,9 C 21,7 C 20,6 C 71 % 1014,6 hPa 0,0 l/m 0 min 0 min 194 W/m 19,3 km/h (3 Bft) 93,62 %
04.07.2020 14:30 21,9 C 21,7 C 20,6 C 71 % 1014,6 hPa 0,0 l/m 0 min 0 min 233 W/m 22,5 km/h (4 Bft) 93,62 %
04.07.2020 14:32 21,9 C 21,7 C 20,6 C 71 % 1014,6 hPa 0,0 l/m 0 min 0 min 203 W/m 25,7 km/h (4 Bft) 95,74 %
04.07.2020 14:34 21,9 C 21,7 C 20,6 C 71 % 1014,6 hPa 0,0 l/m 0 min 0 min 179 W/m 48,3 km/h (6 Bft) 93,48 %
04.07.2020 14:36 21,9 C 21,7 C 20,6 C 71 % 1014,7 hPa 0,0 l/m 0 min 0 min 200 W/m 35,4 km/h (5 Bft) 93,62 %
04.07.2020 14:38 21,9 C 21,7 C 20,6 C 71 % 1014,6 hPa 0,0 l/m 0 min 0 min 240 W/m 29,0 km/h (5 Bft) 93,62 %
04.07.2020 14:40 21,9 C 21,7 C 20,6 C 71 % 1014,6 hPa 0,0 l/m 0 min 0 min 269 W/m 38,6 km/h (5 Bft) 91,49 %
04.07.2020 14:42 21,9 C 22,2 C 21,1 C 71 % 1014,6 hPa 0,0 l/m 0 min 0 min 301 W/m 25,7 km/h (4 Bft) 91,49 %
04.07.2020 14:44 21,9 C 22,2 C 21,1 C 71 % 1014,6 hPa 0,0 l/m 0 min 0 min 289 W/m 19,3 km/h (3 Bft) 95,65 %
04.07.2020 14:46 21,9 C 22,2 C 21,1 C 71 % 1014,6 hPa 0,0 l/m 0 min 0 min 279 W/m 35,4 km/h (5 Bft) 93,62 %
04.07.2020 14:48 21,9 C 22,2 C 21,1 C 71 % 1014,6 hPa 0,0 l/m 0 min 0 min 290 W/m 25,7 km/h (4 Bft) 95,74 %
04.07.2020 14:50 22,0 C 22,2 C 21,1 C 72 % 1014,7 hPa 0,0 l/m 0 min 0 min 237 W/m 25,7 km/h (4 Bft) 97,87 %
04.07.2020 14:52 22,1 C 22,2 C 21,1 C 72 % 1014,6 hPa 0,0 l/m 0 min 0 min 247 W/m 19,3 km/h (3 Bft) 97,87 %
04.07.2020 14:54 22,1 C 22,2 C 21,1 C 72 % 1014,6 hPa 0,0 l/m 0 min 0 min 232 W/m 16,1 km/h (3 Bft) 95,74 %
04.07.2020 14:56 22,1 C 22,2 C 21,1 C 73 % 1014,5 hPa 0,0 l/m 0 min 0 min 214 W/m 19,3 km/h (3 Bft) 95,65 %
04.07.2020 14:58 22,1 C 22,8 C 21,1 C 72 % 1014,5 hPa 0,0 l/m 0 min 0 min 255 W/m 16,1 km/h (3 Bft) 95,74 %
04.07.2020 15:00 22,1 C 22,8 C 21,1 C 72 % 1014,5 hPa 0,0 l/m 0 min 0 min 241 W/m 12,9 km/h (3 Bft) 97,87 %
04.07.2020 15:02 22,1 C 22,2 C 21,1 C 72 % 1014,5 hPa 0,0 l/m 0 min 0 min 223 W/m 22,5 km/h (4 Bft) 97,87 %
04.07.2020 15:04 22,1 C 22,2 C 21,1 C 72 % 1014,6 hPa 0,0 l/m 0 min 0 min 226 W/m 12,9 km/h (3 Bft) 100,00 %
04.07.2020 15:06 22,2 C 22,2 C 21,1 C 72 % 1014,6 hPa 0,0 l/m 0 min 0 min 218 W/m 16,1 km/h (3 Bft) 100,00 %
04.07.2020 15:08 22,2 C 22,2 C 21,1 C 72 % 1014,6 hPa 0,0 l/m 0 min 0 min 215 W/m 22,5 km/h (4 Bft) 100,00 %
04.07.2020 15:10 22,2 C 22,2 C 21,1 C 72 % 1014,6 hPa 0,0 l/m 0 min 0 min 235 W/m 16,1 km/h (3 Bft) 100,00 %
04.07.2020 15:12 22,2 C 22,2 C 21,1 C 72 % 1014,6 hPa 0,0 l/m 0 min 0 min 255 W/m 32,2 km/h (5 Bft) 100,00 %
04.07.2020 15:14 22,2 C 22,8 C 21,1 C 72 % 1014,6 hPa 0,0 l/m 0 min 0 min 251 W/m 29,0 km/h (5 Bft) 100,00 %
04.07.2020 15:16 22,2 C 22,2 C 21,1 C 73 % 1014,7 hPa 0,0 l/m 0 min 0 min 235 W/m 16,1 km/h (3 Bft) 97,87 %
04.07.2020 15:18 22,2 C 22,2 C 21,1 C 72 % 1014,7 hPa 0,0 l/m 0 min 0 min 232 W/m 16,1 km/h (3 Bft) 100,00 %
04.07.2020 15:20 22,2 C 22,2 C 21,1 C 71 % 1014,9 hPa 0,0 l/m 0 min 0 min 235 W/m 25,7 km/h (4 Bft) 100,00 %
04.07.2020 15:22 22,2 C 22,2 C 21,1 C 71 % 1014,9 hPa 0,0 l/m 0 min 0 min 217 W/m 29,0 km/h (5 Bft) 100,00 %
04.07.2020 15:24 22,2 C 21,7 C 21,1 C 72 % 1014,8 hPa 0,0 l/m 0 min 0 min 192 W/m 22,5 km/h (4 Bft) 97,87 %
04.07.2020 15:26 22,1 C 21,7 C 20,6 C 72 % 1015,0 hPa 0,0 l/m 0 min 0 min 171 W/m 32,2 km/h (5 Bft) 97,87 %
04.07.2020 15:28 22,1 C 21,7 C 20,6 C 72 % 1014,9 hPa 0,0 l/m 0 min 0 min 153 W/m 22,5 km/h (4 Bft) 97,87 %
04.07.2020 15:30 22,1 C 21,7 C 20,6 C 72 % 1014,8 hPa 0,0 l/m 0 min 0 min 167 W/m 32,2 km/h (5 Bft) 100,00 %
04.07.2020 15:32 22,1 C 21,1 C 20,6 C 73 % 1014,8 hPa 0,0 l/m 0 min 0 min 173 W/m 29,0 km/h (5 Bft) 100,00 %
04.07.2020 15:34 21,9 C 20,6 C 20,6 C 73 % 1014,9 hPa 0,0 l/m 0 min 0 min 144 W/m 19,3 km/h (3 Bft) 100,00 %
04.07.2020 15:36 21,8 C 20,6 C 20,0 C 74 % 1014,9 hPa 0,0 l/m 0 min 0 min 138 W/m 12,9 km/h (3 Bft) 97,87 %
04.07.2020 15:38 21,7 C 20,6 C 20,0 C 74 % 1015,0 hPa 0,0 l/m 0 min 0 min 146 W/m 25,7 km/h (4 Bft) 100,00 %
04.07.2020 15:40 21,7 C 20,6 C 20,0 C 75 % 1014,9 hPa 0,0 l/m 0 min 0 min 131 W/m 12,9 km/h (3 Bft) 100,00 %
04.07.2020 15:42 21,6 C 20,6 C 20,0 C 75 % 1014,9 hPa 0,0 l/m 0 min 0 min 123 W/m 16,1 km/h (3 Bft) 100,00 %
04.07.2020 15:44 21,6 C 20,6 C 20,0 C 75 % 1014,9 hPa 0,0 l/m 0 min 0 min 127 W/m 22,5 km/h (4 Bft) 100,00 %
04.07.2020 15:46 21,5 C 20,6 C 20,0 C 75 % 1014,9 hPa 0,0 l/m 0 min 0 min 121 W/m 25,7 km/h (4 Bft) 100,00 %
04.07.2020 15:48 21,4 C 20,6 C 20,0 C 75 % 1014,9 hPa 0,0 l/m 0 min 0 min 115 W/m 19,3 km/h (3 Bft) 100,00 %
04.07.2020 15:50 21,4 C 20,6 C 19,4 C 75 % 1014,9 hPa 0,0 l/m 0 min 0 min 114 W/m 19,3 km/h (3 Bft) 100,00 %
04.07.2020 15:52 21,3 C 20,6 C 20,0 C 75 % 1014,9 hPa 0,0 l/m 0 min 0 min 138 W/m 19,3 km/h (3 Bft) 97,87 %
04.07.2020 15:54 21,3 C 21,1 C 20,0 C 76 % 1014,8 hPa 0,0 l/m 0 min 0 min 207 W/m 12,9 km/h (3 Bft) 100,00 %
04.07.2020 15:56 21,3 C 21,1 C 20,0 C 76 % 1014,8 hPa 0,0 l/m 0 min 0 min 263 W/m 22,5 km/h (4 Bft) 100,00 %
04.07.2020 15:58 21,3 C 21,7 C 20,6 C 76 % 1014,7 hPa 0,0 l/m 0 min 0 min 256 W/m 22,5 km/h (4 Bft) 100,00 %
04.07.2020 16:00 21,3 C 21,7 C 20,6 C 76 % 1014,8 hPa 0,0 l/m 0 min 0 min 221 W/m 29,0 km/h (5 Bft) 100,00 %
04.07.2020 16:02 21,3 C 21,7 C 20,6 C 76 % 1014,7 hPa 0,0 l/m 0 min 0 min 207 W/m 19,3 km/h (3 Bft) 100,00 %
04.07.2020 16:04 21,3 C 22,2 C 20,6 C 77 % 1014,7 hPa 0,0 l/m 0 min 0 min 273 W/m 9,7 km/h (2 Bft) 100,00 %
04.07.2020 16:06 21,4 C 22,2 C 20,6 C 77 % 1014,7 hPa 0,0 l/m 0 min 0 min 293 W/m 12,9 km/h (3 Bft) 100,00 %
04.07.2020 16:08 21,4 C 22,2 C 20,6 C 77 % 1014,8 hPa 0,0 l/m 0 min 0 min 235 W/m 16,1 km/h (3 Bft) 100,00 %
04.07.2020 16:10 21,5 C 22,2 C 20,6 C 77 % 1014,7 hPa 0,0 l/m 0 min 0 min 185 W/m 16,1 km/h (3 Bft) 100,00 %
04.07.2020 16:12 21,5 C 21,7 C 20,6 C 76 % 1014,7 hPa 0,0 l/m 0 min 0 min 173 W/m 19,3 km/h (3 Bft) 100,00 %
04.07.2020 16:14 21,6 C 21,7 C 20,6 C 76 % 1014,7 hPa 0,0 l/m 0 min 0 min 173 W/m 22,5 km/h (4 Bft) 100,00 %
04.07.2020 16:16 21,6 C 21,7 C 20,6 C 76 % 1014,8 hPa 0,0 l/m 0 min 0 min 186 W/m 19,3 km/h (3 Bft) 100,00 %
04.07.2020 16:18 21,6 C 21,7 C 20,6 C 76 % 1014,7 hPa 0,0 l/m 0 min 0 min 170 W/m 19,3 km/h (3 Bft) 97,87 %
04.07.2020 16:20 21,6 C 21,7 C 20,6 C 76 % 1014,7 hPa 0,0 l/m 0 min 0 min 168 W/m 12,9 km/h (3 Bft) 100,00 %
04.07.2020 16:22 21,6 C 21,7 C 20,6 C 76 % 1014,9 hPa 0,0 l/m 0 min 0 min 150 W/m 16,1 km/h (3 Bft) 100,00 %
04.07.2020 16:24 21,6 C 21,7 C 20,6 C 75 % 1014,8 hPa 0,0 l/m 0 min 0 min 171 W/m 22,5 km/h (4 Bft) 100,00 %
04.07.2020 16:26 21,6 C 21,7 C 20,6 C 76 % 1014,7 hPa 0,0 l/m 0 min 0 min 167 W/m 12,9 km/h (3 Bft) 97,87 %
04.07.2020 16:28 21,7 C 21,7 C 20,6 C 76 % 1014,7 hPa 0,0 l/m 0 min 0 min 167 W/m 12,9 km/h (3 Bft) 100,00 %
04.07.2020 16:30 21,7 C 21,7 C 20,6 C 76 % 1014,8 hPa 0,0 l/m 0 min 0 min 171 W/m 16,1 km/h (3 Bft) 100,00 %
04.07.2020 16:32 21,7 C 21,7 C 20,6 C 77 % 1014,7 hPa 0,0 l/m 0 min 0 min 190 W/m 9,7 km/h (2 Bft) 97,92 %
04.07.2020 16:34 21,7 C 21,7 C 20,6 C 76 % 1014,7 hPa 0,0 l/m 0 min 0 min 199 W/m 35,4 km/h (5 Bft) 95,74 %
04.07.2020 16:36 21,7 C 22,2 C 20,6 C 76 % 1014,7 hPa 0,0 l/m 0 min 0 min 216 W/m 19,3 km/h (3 Bft) 97,87 %
04.07.2020 16:38 21,7 C 21,7 C 20,6 C 76 % 1014,8 hPa 0,0 l/m 0 min 0 min 167 W/m 19,3 km/h (3 Bft) 97,87 %
04.07.2020 16:40 21,7 C 21,7 C 20,6 C 76 % 1014,8 hPa 0,0 l/m 0 min 0 min 132 W/m 19,3 km/h (3 Bft) 93,48 %
04.07.2020 16:42 21,7 C 21,1 C 20,6 C 75 % 1014,7 hPa 0,0 l/m 0 min 0 min 116 W/m 32,2 km/h (5 Bft) 95,74 %
04.07.2020 16:44 21,7 C 21,1 C 20,6 C 76 % 1014,6 hPa 0,0 l/m 0 min 0 min 115 W/m 16,1 km/h (3 Bft) 97,87 %
04.07.2020 16:46 21,7 C 21,1 C 20,0 C 75 % 1014,6 hPa 0,0 l/m 0 min 0 min 103 W/m 22,5 km/h (4 Bft) 97,87 %
04.07.2020 16:48 21,7 C 21,1 C 20,0 C 76 % 1014,6 hPa 0,0 l/m 0 min 0 min 112 W/m 19,3 km/h (3 Bft) 95,74 %
04.07.2020 16:50 21,7 C 21,1 C 20,0 C 76 % 1014,6 hPa 0,0 l/m 0 min 0 min 132 W/m 12,9 km/h (3 Bft) 97,87 %
04.07.2020 16:52 21,7 C 21,1 C 20,0 C 76 % 1014,6 hPa 0,0 l/m 0 min 0 min 126 W/m 12,9 km/h (3 Bft) 97,83 %
04.07.2020 16:54 21,7 C 21,1 C 20,6 C 76 % 1014,6 hPa 0,0 l/m 0 min 0 min 136 W/m 16,1 km/h (3 Bft) 97,87 %
04.07.2020 16:56 21,7 C 21,1 C 20,6 C 76 % 1014,8 hPa 0,0 l/m 0 min 0 min 128 W/m 16,1 km/h (3 Bft) 97,87 %
04.07.2020 16:58 21,7 C 21,1 C 20,6 C 76 % 1014,6 hPa 0,0 l/m 0 min 0 min 134 W/m 19,3 km/h (3 Bft) 95,74 %
04.07.2020 17:00 21,7 C 21,1 C 20,6 C 76 % 1014,6 hPa 0,0 l/m 0 min 0 min 137 W/m 19,3 km/h (3 Bft) 95,74 %
04.07.2020 17:02 21,7 C 21,7 C 20,6 C 76 % 1014,6 hPa 0,0 l/m 0 min 0 min 161 W/m 22,5 km/h (4 Bft) 95,74 %
04.07.2020 17:04 21,7 C 21,7 C 20,6 C 76 % 1014,6 hPa 0,0 l/m 0 min 0 min 194 W/m 29,0 km/h (5 Bft) 95,74 %
04.07.2020 17:06 21,7 C 21,1 C 20,6 C 76 % 1014,6 hPa 0,0 l/m 0 min 0 min 174 W/m 32,2 km/h (5 Bft) 95,74 %
04.07.2020 17:08 21,7 C 21,1 C 20,6 C 76 % 1014,6 hPa 0,0 l/m 0 min 0 min 124 W/m 29,0 km/h (5 Bft) 93,62 %
04.07.2020 17:10 21,6 C 21,1 C 20,6 C 76 % 1014,6 hPa 0,0 l/m 0 min 0 min 109 W/m 19,3 km/h (3 Bft) 93,62 %
04.07.2020 17:12 21,6 C 21,1 C 20,6 C 76 % 1014,6 hPa 0,0 l/m 0 min 0 min 103 W/m 25,7 km/h (4 Bft) 95,74 %
04.07.2020 17:14 21,6 C 21,1 C 20,6 C 76 % 1014,7 hPa 0,0 l/m 0 min 0 min 121 W/m 16,1 km/h (3 Bft) 95,65 %
04.07.2020 17:16 21,7 C 21,1 C 20,6 C 77 % 1014,6 hPa 0,0 l/m 0 min 0 min 120 W/m 9,7 km/h (2 Bft) 93,62 %
04.07.2020 17:18 21,7 C 21,1 C 20,6 C 76 % 1014,7 hPa 0,0 l/m 0 min 0 min 114 W/m 19,3 km/h (3 Bft) 97,87 %
04.07.2020 17:20 21,7 C 21,1 C 20,6 C 77 % 1014,6 hPa 0,0 l/m 0 min 0 min 114 W/m 6,4 km/h (2 Bft) 91,49 %
04.07.2020 17:22 21,7 C 21,1 C 20,6 C 77 % 1014,6 hPa 0,0 l/m 0 min 0 min 119 W/m 22,5 km/h (4 Bft) 95,74 %
04.07.2020 17:24 21,7 C 21,1 C 20,6 C 76 % 1014,7 hPa 0,0 l/m 0 min 0 min 132 W/m 22,5 km/h (4 Bft) 97,87 %
04.07.2020 17:26 21,7 C 21,1 C 20,6 C 76 % 1014,6 hPa 0,0 l/m 0 min 0 min 126 W/m 16,1 km/h (3 Bft) 89,13 %
04.07.2020 17:28 21,7 C 21,1 C 20,6 C 76 % 1014,7 hPa 0,0 l/m 0 min 0 min 122 W/m 19,3 km/h (3 Bft) 95,74 %
04.07.2020 17:30 21,7 C 21,1 C 20,6 C 75 % 1014,5 hPa 0,0 l/m 0 min 0 min 135 W/m 22,5 km/h (4 Bft) 93,62 %
04.07.2020 17:32 21,7 C 21,7 C 20,6 C 76 % 1014,5 hPa 0,0 l/m 0 min 0 min 157 W/m 16,1 km/h (3 Bft) 93,75 %
04.07.2020 17:34 21,7 C 21,7 C 20,6 C 76 % 1014,5 hPa 0,0 l/m 0 min 0 min 165 W/m 16,1 km/h (3 Bft) 95,74 %
04.07.2020 17:36 21,7 C 21,7 C 20,6 C 76 % 1014,6 hPa 0,0 l/m 0 min 0 min 152 W/m 6,4 km/h (2 Bft) 95,65 %
04.07.2020 17:38 21,7 C 22,2 C 20,6 C 76 % 1014,5 hPa 0,0 l/m 0 min 0 min 160 W/m 12,9 km/h (3 Bft) 95,74 %
04.07.2020 17:40 21,8 C 22,2 C 20,6 C 76 % 1014,6 hPa 0,0 l/m 0 min 0 min 134 W/m 12,9 km/h (3 Bft) 95,74 %
04.07.2020 17:42 21,8 C 21,7 C 20,6 C 76 % 1014,8 hPa 0,0 l/m 0 min 0 min 103 W/m 19,3 km/h (3 Bft) 95,74 %
04.07.2020 17:44 21,8 C 21,7 C 20,6 C 75 % 1014,6 hPa 0,0 l/m 0 min 0 min 84 W/m 9,7 km/h (2 Bft) 95,74 %
04.07.2020 17:46 21,8 C 21,1 C 20,6 C 75 % 1014,7 hPa 0,0 l/m 0 min 0 min 89 W/m 12,9 km/h (3 Bft) 95,74 %
04.07.2020 17:48 21,8 C 21,1 C 20,6 C 75 % 1014,7 hPa 0,0 l/m 0 min 0 min 104 W/m 16,1 km/h (3 Bft) 95,65 %
04.07.2020 17:50 21,8 C 21,1 C 20,6 C 75 % 1014,6 hPa 0,0 l/m 0 min 0 min 113 W/m 16,1 km/h (3 Bft) 95,74 %
04.07.2020 17:52 21,8 C 21,1 C 20,6 C 75 % 1014,6 hPa 0,0 l/m 0 min 0 min 106 W/m 12,9 km/h (3 Bft) 95,74 %
04.07.2020 17:54 21,8 C 21,7 C 20,6 C 75 % 1014,5 hPa 0,0 l/m 0 min 0 min 131 W/m 22,5 km/h (4 Bft) 93,62 %
04.07.2020 17:56 21,8 C 21,7 C 20,6 C 75 % 1014,5 hPa 0,0 l/m 0 min 0 min 134 W/m 16,1 km/h (3 Bft) 97,87 %
04.07.2020 17:58 21,8 C 21,7 C 20,6 C 75 % 1014,4 hPa 0,0 l/m 0 min 0 min 125 W/m 12,9 km/h (3 Bft) 97,87 %
04.07.2020 18:00 21,8 C 21,7 C 20,6 C 75 % 1014,5 hPa 0,0 l/m 0 min 0 min 120 W/m 6,4 km/h (2 Bft) 97,83 %
04.07.2020 18:02 21,8 C 21,7 C 20,6 C 75 % 1014,5 hPa 0,0 l/m 0 min 0 min 115 W/m 12,9 km/h (3 Bft) 95,83 %
04.07.2020 18:04 21,8 C 21,7 C 20,6 C 76 % 1014,4 hPa 0,0 l/m 0 min 0 min 126 W/m 6,4 km/h (2 Bft) 97,87 %
04.07.2020 18:08 21,8 C 21,7 C 20,6 C 75 % 1014,4 hPa 0,0 l/m 0 min 0 min 125 W/m 29,0 km/h (5 Bft) 97,87 %
04.07.2020 18:10 21,8 C 21,7 C 20,6 C 75 % 1014,5 hPa 0,0 l/m 0 min 0 min 140 W/m 29,0 km/h (5 Bft) 95,74 %
04.07.2020 18:12 21,8 C 21,7 C 20,6 C 75 % 1014,4 hPa 0,0 l/m 0 min 0 min 136 W/m 22,5 km/h (4 Bft) 97,83 %
04.07.2020 18:14 21,9 C 21,7 C 20,6 C 74 % 1014,3 hPa 0,0 l/m 0 min 0 min 139 W/m 22,5 km/h (4 Bft) 97,87 %
04.07.2020 18:16 21,9 C 21,7 C 20,6 C 74 % 1014,3 hPa 0,0 l/m 0 min 0 min 116 W/m 22,5 km/h (4 Bft) 97,87 %
04.07.2020 18:18 21,9 C 21,7 C 20,6 C 74 % 1014,3 hPa 0,0 l/m 0 min 0 min 99 W/m 19,3 km/h (3 Bft) 95,74 %
04.07.2020 18:20 21,9 C 21,7 C 20,6 C 74 % 1014,4 hPa 0,0 l/m 0 min 0 min 92 W/m 22,5 km/h (4 Bft) 97,87 %
04.07.2020 18:22 21,9 C 21,7 C 20,6 C 74 % 1014,2 hPa 0,0 l/m 0 min 0 min 96 W/m 19,3 km/h (3 Bft) 100,00 %
04.07.2020 18:24 21,9 C 21,7 C 20,6 C 74 % 1014,2 hPa 0,0 l/m 0 min 0 min 103 W/m 19,3 km/h (3 Bft) 100,00 %
04.07.2020 18:26 21,9 C 21,7 C 20,6 C 74 % 1014,1 hPa 0,0 l/m 0 min 0 min 110 W/m 19,3 km/h (3 Bft) 100,00 %
04.07.2020 18:28 21,9 C 21,7 C 20,6 C 74 % 1014,0 hPa 0,0 l/m 0 min 0 min 114 W/m 16,1 km/h (3 Bft) 100,00 %
04.07.2020 18:30 21,9 C 21,7 C 20,6 C 74 % 1014,1 hPa 0,0 l/m 0 min 0 min 124 W/m 19,3 km/h (3 Bft) 100,00 %
04.07.2020 18:32 21,9 C 21,7 C 20,6 C 74 % 1014,2 hPa 0,0 l/m 0 min 0 min 113 W/m 16,1 km/h (3 Bft) 100,00 %
04.07.2020 18:34 22,0 C 21,7 C 20,6 C 75 % 1014,2 hPa 0,0 l/m 0 min 0 min 103 W/m 25,7 km/h (4 Bft) 100,00 %
04.07.2020 18:36 22,0 C 21,7 C 20,6 C 75 % 1014,1 hPa 0,0 l/m 0 min 0 min 99 W/m 16,1 km/h (3 Bft) 100,00 %
04.07.2020 18:38 22,0 C 21,7 C 20,6 C 75 % 1014,1 hPa 0,0 l/m 0 min 0 min 106 W/m 12,9 km/h (3 Bft) 97,87 %
04.07.2020 18:40 22,0 C 21,7 C 20,6 C 75 % 1014,1 hPa 0,0 l/m 0 min 0 min 89 W/m 12,9 km/h (3 Bft) 100,00 %
04.07.2020 18:42 22,1 C 21,7 C 20,6 C 74 % 1014,0 hPa 0,0 l/m 0 min 0 min 75 W/m 16,1 km/h (3 Bft) 97,87 %
04.07.2020 18:44 22,1 C 21,7 C 20,6 C 74 % 1014,1 hPa 0,0 l/m 0 min 0 min 76 W/m 29,0 km/h (5 Bft) 100,00 %
04.07.2020 18:46 22,1 C 21,1 C 20,6 C 74 % 1014,1 hPa 0,0 l/m 0 min 0 min 84 W/m 29,0 km/h (5 Bft) 100,00 %
04.07.2020 18:48 22,0 C 21,1 C 20,6 C 74 % 1014,1 hPa 0,0 l/m 0 min 0 min 79 W/m 25,7 km/h (4 Bft) 100,00 %
04.07.2020 18:50 22,0 C 21,1 C 20,6 C 74 % 1014,1 hPa 0,0 l/m 0 min 0 min 72 W/m 12,9 km/h (3 Bft) 100,00 %
04.07.2020 18:52 22,0 C 21,1 C 20,6 C 74 % 1014,1 hPa 0,0 l/m 0 min 0 min 70 W/m 22,5 km/h (4 Bft) 100,00 %
04.07.2020 18:54 22,0 C 21,1 C 20,6 C 74 % 1014,1 hPa 0,0 l/m 0 min 0 min 64 W/m 19,3 km/h (3 Bft) 100,00 %
04.07.2020 18:56 22,0 C 21,1 C 20,6 C 74 % 1014,2 hPa 0,0 l/m 0 min 0 min 62 W/m 25,7 km/h (4 Bft) 100,00 %
04.07.2020 18:58 22,0 C 21,1 C 20,6 C 74 % 1014,2 hPa 0,0 l/m 0 min 0 min 62 W/m 16,1 km/h (3 Bft) 100,00 %
04.07.2020 19:00 22,0 C 21,1 C 20,6 C 74 % 1014,1 hPa 0,0 l/m 0 min 0 min 54 W/m 19,3 km/h (3 Bft) 100,00 %
04.07.2020 19:02 22,0 C 21,1 C 20,6 C 74 % 1014,2 hPa 0,0 l/m 0 min 0 min 52 W/m 22,5 km/h (4 Bft) 100,00 %
04.07.2020 19:04 22,0 C 21,1 C 20,6 C 74 % 1014,1 hPa 0,0 l/m 0 min 0 min 45 W/m 41,8 km/h (6 Bft) 100,00 %
04.07.2020 19:06 21,9 C 21,1 C 20,6 C 74 % 1014,1 hPa 0,0 l/m 0 min 0 min 38 W/m 25,7 km/h (4 Bft) 100,00 %
04.07.2020 19:08 21,9 C 21,1 C 20,6 C 75 % 1014,1 hPa 0,0 l/m 0 min 0 min 44 W/m 22,5 km/h (4 Bft) 97,87 %
04.07.2020 19:10 21,9 C 21,1 C 20,6 C 75 % 1014,1 hPa 0,0 l/m 0 min 0 min 58 W/m 19,3 km/h (3 Bft) 97,87 %
04.07.2020 19:12 21,9 C 21,1 C 20,6 C 75 % 1014,1 hPa 0,0 l/m 0 min 0 min 62 W/m 22,5 km/h (4 Bft) 97,87 %
04.07.2020 19:14 21,9 C 21,1 C 20,6 C 75 % 1014,1 hPa 0,0 l/m 0 min 0 min 55 W/m 19,3 km/h (3 Bft) 97,83 %
04.07.2020 19:16 21,9 C 21,1 C 20,6 C 75 % 1014,1 hPa 0,0 l/m 0 min 0 min 50 W/m 16,1 km/h (3 Bft) 97,87 %
04.07.2020 19:18 21,9 C 21,1 C 20,6 C 76 % 1014,1 hPa 0,0 l/m 0 min 0 min 43 W/m 16,1 km/h (3 Bft) 95,74 %
04.07.2020 19:20 21,8 C 21,1 C 20,6 C 76 % 1014,1 hPa 0,0 l/m 0 min 0 min 40 W/m 22,5 km/h (4 Bft) 95,74 %
04.07.2020 19:22 21,8 C 20,6 C 20,6 C 76 % 1014,1 hPa 0,0 l/m 0 min 0 min 37 W/m 16,1 km/h (3 Bft) 97,87 %
04.07.2020 19:24 21,8 C 20,6 C 20,0 C 76 % 1014,1 hPa 0,0 l/m 0 min 0 min 32 W/m 19,3 km/h (3 Bft) 97,87 %
04.07.2020 19:26 21,8 C 20,6 C 20,0 C 76 % 1014,1 hPa 0,0 l/m 0 min 0 min 31 W/m 16,1 km/h (3 Bft) 97,83 %
04.07.2020 19:28 21,8 C 20,6 C 20,0 C 76 % 1014,1 hPa 0,0 l/m 0 min 0 min 34 W/m 9,7 km/h (2 Bft) 97,87 %
04.07.2020 19:30 21,8 C 20,6 C 20,0 C 76 % 1014,1 hPa 0,0 l/m 0 min 0 min 36 W/m 9,7 km/h (2 Bft) 97,87 %
04.07.2020 19:32 21,7 C 20,6 C 20,0 C 77 % 1014,1 hPa 0,0 l/m 0 min 0 min 33 W/m 19,3 km/h (3 Bft) 97,87 %
04.07.2020 19:34 21,7 C 20,6 C 20,0 C 77 % 1014,2 hPa 0,0 l/m 0 min 0 min 35 W/m 38,6 km/h (5 Bft) 97,87 %
04.07.2020 19:36 21,7 C 20,6 C 20,0 C 77 % 1014,3 hPa 0,0 l/m 0 min 0 min 37 W/m 25,7 km/h (4 Bft) 97,83 %
04.07.2020 19:38 21,6 C 20,6 C 20,0 C 77 % 1014,4 hPa 0,0 l/m 0 min 0 min 35 W/m 16,1 km/h (3 Bft) 93,62 %
04.07.2020 19:40 21,6 C 20,6 C 20,0 C 77 % 1014,3 hPa 0,0 l/m 0 min 0 min 35 W/m 16,1 km/h (3 Bft) 97,87 %
04.07.2020 19:42 21,6 C 20,6 C 20,0 C 77 % 1014,3 hPa 0,0 l/m 0 min 0 min 27 W/m 19,3 km/h (3 Bft) 97,87 %
04.07.2020 19:44 21,6 C 20,0 C 20,0 C 78 % 1014,4 hPa 0,0 l/m 0 min 0 min 21 W/m 29,0 km/h (5 Bft) 97,87 %
04.07.2020 19:46 21,5 C 20,0 C 20,0 C 78 % 1014,4 hPa 0,0 l/m 0 min 0 min 21 W/m 25,7 km/h (4 Bft) 95,74 %
04.07.2020 19:48 21,4 C 18,9 C 19,4 C 79 % 1014,3 hPa 0,0 l/m 0 min 2 min 22 W/m 19,3 km/h (3 Bft) 97,83 %
04.07.2020 19:50 21,4 C 17,8 C 19,4 C 80 % 1014,3 hPa 0,0 l/m 0 min 2 min 25 W/m 12,9 km/h (3 Bft) 97,87 %
04.07.2020 19:52 21,3 C 17,8 C 19,4 C 80 % 1014,3 hPa 0,0 l/m 0 min 2 min 27 W/m 25,7 km/h (4 Bft) 95,74 %
04.07.2020 19:54 21,3 C 17,8 C 18,9 C 81 % 1014,4 hPa 0,0 l/m 0 min 2 min 28 W/m 16,1 km/h (3 Bft) 97,87 %
04.07.2020 19:56 21,2 C 18,3 C 18,9 C 81 % 1014,3 hPa 0,0 l/m 0 min 2 min 30 W/m 16,1 km/h (3 Bft) 100,00 %
04.07.2020 19:58 21,2 C 18,3 C 18,9 C 82 % 1014,3 hPa 0,0 l/m 0 min 2 min 29 W/m 16,1 km/h (3 Bft) 97,87 %
04.07.2020 20:00 21,1 C 18,3 C 18,9 C 82 % 1014,4 hPa 0,0 l/m 0 min 2 min 33 W/m 12,9 km/h (3 Bft) 100,00 %
04.07.2020 20:02 21,0 C 18,9 C 18,9 C 82 % 1014,6 hPa 0,0 l/m 0 min 2 min 37 W/m 29,0 km/h (5 Bft) 97,87 %
04.07.2020 20:04 20,9 C 18,9 C 18,9 C 82 % 1014,4 hPa 0,0 l/m 0 min 0 min 36 W/m 32,2 km/h (5 Bft) 100,00 %
04.07.2020 20:06 20,8 C 18,9 C 18,9 C 83 % 1014,4 hPa 0,0 l/m 0 min 2 min 39 W/m 19,3 km/h (3 Bft) 97,87 %
04.07.2020 20:08 20,7 C 18,9 C 18,9 C 83 % 1014,3 hPa 0,0 l/m 0 min 0 min 33 W/m 32,2 km/h (5 Bft) 100,00 %
04.07.2020 20:09 20,7 C 18,9 C 18,9 C 83 % 1014,4 hPa 0,0 l/m 0 min 0 min 32 W/m 22,5 km/h (4 Bft) 100,00 %
04.07.2020 20:12 20,6 C 18,9 C 18,9 C 84 % 1014,3 hPa 0,0 l/m 0 min 0 min 36 W/m 19,3 km/h (3 Bft) 97,83 %
04.07.2020 20:14 20,5 C 18,9 C 18,9 C 84 % 1014,2 hPa 0,0 l/m 0 min 0 min 34 W/m 19,3 km/h (3 Bft) 100,00 %
04.07.2020 20:16 20,5 C 18,9 C 18,9 C 84 % 1014,3 hPa 0,0 l/m 0 min 0 min 28 W/m 29,0 km/h (5 Bft) 97,87 %
04.07.2020 20:18 20,4 C 18,9 C 18,9 C 85 % 1014,3 hPa 0,0 l/m 0 min 0 min 25 W/m 19,3 km/h (3 Bft) 97,87 %
04.07.2020 20:20 20,4 C 18,3 C 18,9 C 85 % 1014,3 hPa 0,0 l/m 0 min 0 min 24 W/m 22,5 km/h (4 Bft) 95,74 %
04.07.2020 20:22 20,3 C 18,3 C 18,3 C 85 % 1014,2 hPa 0,0 l/m 0 min 2 min 22 W/m 25,7 km/h (4 Bft) 95,74 %
04.07.2020 20:24 20,3 C 18,3 C 18,3 C 86 % 1014,3 hPa 0,0 l/m 0 min 2 min 22 W/m 25,7 km/h (4 Bft) 93,48 %
04.07.2020 20:26 20,3 C 18,3 C 18,3 C 86 % 1014,2 hPa 0,0 l/m 0 min 2 min 21 W/m 29,0 km/h (5 Bft) 97,87 %
04.07.2020 20:28 20,2 C 18,3 C 18,3 C 86 % 1014,2 hPa 0,0 l/m 0 min 0 min 21 W/m 25,7 km/h (4 Bft) 97,87 %
04.07.2020 20:30 20,2 C 18,3 C 18,3 C 86 % 1014,2 hPa 0,0 l/m 0 min 0 min 19 W/m 19,3 km/h (3 Bft) 97,87 %
04.07.2020 20:32 20,2 C 18,3 C 18,3 C 86 % 1014,2 hPa 0,0 l/m 0 min 0 min 18 W/m 25,7 km/h (4 Bft) 95,74 %
04.07.2020 20:34 20,1 C 18,9 C 18,3 C 86 % 1014,1 hPa 0,0 l/m 0 min 0 min 18 W/m 35,4 km/h (5 Bft) 93,48 %
04.07.2020 20:36 20,1 C 18,9 C 18,3 C 87 % 1014,1 hPa 0,0 l/m 0 min 0 min 16 W/m 22,5 km/h (4 Bft) 95,74 %
04.07.2020 20:38 20,0 C 18,9 C 18,3 C 87 % 1014,1 hPa 0,0 l/m 0 min 0 min 14 W/m 25,7 km/h (4 Bft) 95,74 %
04.07.2020 20:40 20,0 C 18,9 C 18,3 C 87 % 1014,1 hPa 0,0 l/m 0 min 0 min 14 W/m 19,3 km/h (3 Bft) 95,74 %
04.07.2020 20:42 19,9 C 18,9 C 18,3 C 87 % 1014,1 hPa 0,0 l/m 0 min 0 min 17 W/m 22,5 km/h (4 Bft) 93,62 %
04.07.2020 20:44 19,9 C 18,9 C 18,3 C 87 % 1014,1 hPa 0,0 l/m 0 min 0 min 16 W/m 22,5 km/h (4 Bft) 93,62 %
04.07.2020 20:46 19,9 C 18,9 C 18,3 C 87 % 1014,1 hPa 0,0 l/m 0 min 0 min 14 W/m 29,0 km/h (5 Bft) 96,15 %
04.07.2020 20:48 19,9 C 18,9 C 18,3 C 87 % 1013,9 hPa 0,0 l/m 0 min 0 min 16 W/m 29,0 km/h (5 Bft) 95,12 %
04.07.2020 20:50 19,8 C 18,9 C 18,3 C 87 % 1014,0 hPa 0,0 l/m 0 min 0 min 15 W/m 25,7 km/h (4 Bft) 95,74 %
04.07.2020 20:52 19,8 C 18,9 C 18,3 C 88 % 1013,9 hPa 0,0 l/m 0 min 0 min 13 W/m 22,5 km/h (4 Bft) 93,62 %
04.07.2020 20:54 19,8 C 18,9 C 18,3 C 88 % 1014,0 hPa 0,0 l/m 0 min 0 min 12 W/m 25,7 km/h (4 Bft) 93,62 %
04.07.2020 20:56 19,8 C 18,9 C 18,3 C 88 % 1013,9 hPa 0,0 l/m 0 min 0 min 11 W/m 19,3 km/h (3 Bft) 93,62 %
04.07.2020 20:58 19,8 C 18,9 C 18,3 C 88 % 1013,9 hPa 0,0 l/m 0 min 0 min 8 W/m 22,5 km/h (4 Bft) 93,48 %
04.07.2020 21:00 19,8 C 18,9 C 18,3 C 88 % 1013,8 hPa 0,0 l/m 0 min 0 min 6 W/m 22,5 km/h (4 Bft) 95,74 %
04.07.2020 21:02 19,8 C 18,9 C 18,3 C 88 % 1013,8 hPa 0,0 l/m 0 min 0 min 5 W/m 16,1 km/h (3 Bft) 94,44 %
04.07.2020 21:04 19,7 C 18,9 C 18,3 C 88 % 1013,8 hPa 0,0 l/m 0 min 0 min 6 W/m 16,1 km/h (3 Bft) 95,74 %
04.07.2020 21:06 19,7 C 18,3 C 18,3 C 88 % 1013,9 hPa 0,0 l/m 0 min 0 min 7 W/m 25,7 km/h (4 Bft) 95,65 %
04.07.2020 21:08 19,7 C 18,3 C 18,3 C 88 % 1013,9 hPa 0,0 l/m 0 min 0 min 7 W/m 25,7 km/h (4 Bft) 93,62 %
04.07.2020 21:10 19,7 C 18,3 C 18,3 C 89 % 1013,9 hPa 0,0 l/m 0 min 0 min 6 W/m 16,1 km/h (3 Bft) 95,74 %
04.07.2020 21:12 19,7 C 18,3 C 18,3 C 89 % 1013,9 hPa 0,0 l/m 0 min 0 min 5 W/m 16,1 km/h (3 Bft) 93,62 %
04.07.2020 21:14 19,7 C 18,3 C 18,3 C 89 % 1013,9 hPa 0,0 l/m 0 min 0 min 5 W/m 16,1 km/h (3 Bft) 95,74 %
04.07.2020 21:16 19,7 C 18,3 C 18,3 C 89 % 1013,9 hPa 0,0 l/m 0 min 0 min 8 W/m 19,3 km/h (3 Bft) 93,62 %
04.07.2020 21:18 19,7 C 18,3 C 18,3 C 89 % 1013,9 hPa 0,0 l/m 0 min 0 min 10 W/m 16,1 km/h (3 Bft) 97,83 %
04.07.2020 21:20 19,6 C 18,3 C 18,3 C 89 % 1013,9 hPa 0,0 l/m 0 min 0 min 11 W/m 12,9 km/h (3 Bft) 97,87 %
04.07.2020 21:22 19,6 C 18,3 C 18,3 C 89 % 1013,9 hPa 0,0 l/m 0 min 0 min 11 W/m 12,9 km/h (3 Bft) 97,87 %
04.07.2020 21:24 19,6 C 18,3 C 18,3 C 89 % 1013,9 hPa 0,0 l/m 0 min 0 min 11 W/m 16,1 km/h (3 Bft) 97,87 %
04.07.2020 21:26 19,6 C 18,3 C 18,3 C 89 % 1013,9 hPa 0,0 l/m 0 min 0 min 11 W/m 16,1 km/h (3 Bft) 95,74 %
04.07.2020 21:28 19,6 C 18,3 C 18,3 C 89 % 1013,9 hPa 0,0 l/m 0 min 0 min 10 W/m 16,1 km/h (3 Bft) 97,87 %
04.07.2020 21:30 19,6 C 18,3 C 18,3 C 89 % 1013,9 hPa 0,0 l/m 0 min 0 min 9 W/m 16,1 km/h (3 Bft) 100,00 %
04.07.2020 21:32 19,6 C 18,3 C 18,3 C 89 % 1013,9 hPa 0,0 l/m 0 min 0 min 7 W/m 16,1 km/h (3 Bft) 100,00 %
04.07.2020 21:34 19,5 C 18,3 C 18,3 C 89 % 1013,9 hPa 0,0 l/m 0 min 0 min 3 W/m 16,1 km/h (3 Bft) 100,00 %
04.07.2020 21:36 19,5 C 18,3 C 18,3 C 89 % 1013,9 hPa 0,0 l/m 0 min 0 min 0 W/m 12,9 km/h (3 Bft) 97,87 %
04.07.2020 21:38 19,5 C 18,3 C 18,3 C 89 % 1013,9 hPa 0,0 l/m 0 min 0 min 0 W/m 16,1 km/h (3 Bft) 100,00 %
04.07.2020 21:40 19,5 C 18,3 C 18,3 C 89 % 1013,9 hPa 0,0 l/m 0 min 0 min 0 W/m 19,3 km/h (3 Bft) 100,00 %
04.07.2020 21:42 19,5 C 18,9 C 18,3 C 89 % 1013,9 hPa 0,0 l/m 0 min 0 min 0 W/m 32,2 km/h (5 Bft) 97,83 %
04.07.2020 21:44 19,5 C 18,9 C 18,3 C 89 % 1013,9 hPa 0,0 l/m 0 min 0 min 0 W/m 19,3 km/h (3 Bft) 100,00 %
04.07.2020 21:46 19,5 C 18,9 C 18,3 C 89 % 1013,9 hPa 0,0 l/m 0 min 0 min 0 W/m 16,1 km/h (3 Bft) 100,00 %
04.07.2020 21:48 19,5 C 18,9 C 18,3 C 89 % 1013,9 hPa 0,0 l/m 0 min 0 min 0 W/m 25,7 km/h (4 Bft) 100,00 %
04.07.2020 21:50 19,5 C 18,9 C 18,3 C 89 % 1013,9 hPa 0,0 l/m 0 min 0 min 0 W/m 19,3 km/h (3 Bft) 100,00 %
04.07.2020 21:52 19,4 C 18,9 C 18,3 C 89 % 1013,8 hPa 0,0 l/m 0 min 0 min 0 W/m 19,3 km/h (3 Bft) 97,87 %
04.07.2020 21:54 19,4 C 18,9 C 18,3 C 89 % 1013,8 hPa 0,0 l/m 0 min 0 min 0 W/m 19,3 km/h (3 Bft) 91,30 %
04.07.2020 21:56 19,5 C 18,9 C 18,3 C 89 % 1013,9 hPa 0,0 l/m 0 min 0 min 0 W/m 12,9 km/h (3 Bft) 97,87 %
04.07.2020 21:58 19,5 C 18,9 C 18,3 C 89 % 1013,9 hPa 0,0 l/m 0 min 0 min 0 W/m 19,3 km/h (3 Bft) 97,87 %
04.07.2020 22:00 19,5 C 18,9 C 18,3 C 89 % 1013,9 hPa 0,0 l/m 0 min 0 min 0 W/m 22,5 km/h (4 Bft) 97,87 %
04.07.2020 22:02 19,5 C 18,9 C 18,3 C 89 % 1013,8 hPa 0,0 l/m 0 min 0 min 0 W/m 19,3 km/h (3 Bft) 97,92 %
04.07.2020 22:04 19,5 C 18,9 C 18,3 C 89 % 1013,8 hPa 0,0 l/m 0 min 0 min 0 W/m 19,3 km/h (3 Bft) 97,87 %
04.07.2020 22:06 19,5 C 18,9 C 18,3 C 89 % 1013,8 hPa 0,0 l/m 0 min 0 min 0 W/m 22,5 km/h (4 Bft) 97,83 %
04.07.2020 22:08 19,5 C 18,9 C 18,3 C 89 % 1013,9 hPa 0,0 l/m 0 min 2 min 0 W/m 22,5 km/h (4 Bft) 97,87 %
04.07.2020 22:10 19,5 C 18,3 C 18,3 C 89 % 1013,9 hPa 0,0 l/m 0 min 2 min 0 W/m 16,1 km/h (3 Bft) 93,62 %
04.07.2020 22:12 19,5 C 18,3 C 18,3 C 89 % 1014,0 hPa 0,0 l/m 0 min 0 min 0 W/m 19,3 km/h (3 Bft) 97,87 %
04.07.2020 22:14 19,5 C 17,8 C 18,3 C 89 % 1013,9 hPa 0,0 l/m 0 min 2 min 0 W/m 25,7 km/h (4 Bft) 97,87 %
04.07.2020 22:16 19,5 C 17,2 C 17,8 C 89 % 1013,9 hPa 0,0 l/m 0 min 2 min 0 W/m 19,3 km/h (3 Bft) 97,83 %
04.07.2020 22:18 19,5 C 17,2 C 17,8 C 90 % 1013,9 hPa 0,0 l/m 0 min 2 min 0 W/m 19,3 km/h (3 Bft) 97,87 %
04.07.2020 22:20 19,5 C 16,7 C 17,8 C 90 % 1014,0 hPa 0,0 l/m 0 min 2 min 0 W/m 22,5 km/h (4 Bft) 97,87 %
04.07.2020 22:22 19,5 C 16,7 C 17,8 C 90 % 1013,9 hPa 0,0 l/m 0 min 2 min 0 W/m 25,7 km/h (4 Bft) 95,74 %
04.07.2020 22:24 19,5 C 17,2 C 17,8 C 90 % 1013,9 hPa 0,0 l/m 0 min 0 min 0 W/m 16,1 km/h (3 Bft) 97,87 %
04.07.2020 22:26 19,5 C 17,2 C 17,8 C 90 % 1013,9 hPa 0,0 l/m 0 min 0 min 0 W/m 16,1 km/h (3 Bft) 95,74 %
04.07.2020 22:28 19,4 C 17,2 C 17,8 C 90 % 1013,9 hPa 0,0 l/m 0 min 0 min 0 W/m 16,1 km/h (3 Bft) 95,65 %
04.07.2020 22:30 19,4 C 17,2 C 17,8 C 90 % 1013,9 hPa 0,0 l/m 0 min 2 min 0 W/m 12,9 km/h (3 Bft) 97,87 %
04.07.2020 22:32 19,4 C 17,2 C 17,8 C 91 % 1013,9 hPa 0,0 l/m 0 min 2 min 0 W/m 16,1 km/h (3 Bft) 97,92 %
04.07.2020 22:34 19,4 C 17,2 C 17,8 C 91 % 1013,9 hPa 0,0 l/m 0 min 2 min 0 W/m 19,3 km/h (3 Bft) 97,87 %
04.07.2020 22:36 19,4 C 17,2 C 17,8 C 91 % 1013,8 hPa 0,0 l/m 0 min 2 min 0 W/m 29,0 km/h (5 Bft) 97,87 %
04.07.2020 22:38 19,3 C 17,2 C 17,8 C 91 % 1013,8 hPa 0,0 l/m 0 min 2 min 0 W/m 25,7 km/h (4 Bft) 100,00 %
04.07.2020 22:40 19,3 C 17,2 C 17,8 C 91 % 1013,8 hPa 0,0 l/m 0 min 2 min 0 W/m 29,0 km/h (5 Bft) 100,00 %
04.07.2020 22:42 19,3 C 17,2 C 17,8 C 91 % 1013,7 hPa 0,0 l/m 0 min 0 min 0 W/m 19,3 km/h (3 Bft) 100,00 %
04.07.2020 22:44 19,3 C 17,2 C 17,8 C 91 % 1013,7 hPa 0,0 l/m 0 min 0 min 0 W/m 22,5 km/h (4 Bft) 97,87 %
04.07.2020 22:46 19,3 C 17,2 C 17,8 C 91 % 1013,7 hPa 0,0 l/m 0 min 2 min 0 W/m 22,5 km/h (4 Bft) 100,00 %
04.07.2020 22:48 19,2 C 17,2 C 17,8 C 92 % 1013,7 hPa 0,0 l/m 0 min 2 min 0 W/m 16,1 km/h (3 Bft) 100,00 %
04.07.2020 22:50 19,2 C 17,2 C 17,8 C 91 % 1013,8 hPa 0,0 l/m 0 min 2 min 0 W/m 32,2 km/h (5 Bft) 97,87 %
04.07.2020 22:52 19,2 C 16,7 C 17,8 C 92 % 1013,9 hPa 0,2 l/m 0 min 2 min 0 W/m 29,0 km/h (5 Bft) 97,83 %
04.07.2020 22:54 19,2 C 16,7 C 17,2 C 92 % 1013,8 hPa 0,0 l/m 0 min 2 min 0 W/m 19,3 km/h (3 Bft) 100,00 %
04.07.2020 22:56 19,2 C 16,7 C 17,2 C 92 % 1013,8 hPa 0,0 l/m 0 min 2 min 0 W/m 22,5 km/h (4 Bft) 100,00 %
04.07.2020 22:58 19,2 C 16,7 C 17,2 C 92 % 1013,8 hPa 0,0 l/m 0 min 2 min 0 W/m 12,9 km/h (3 Bft) 100,00 %
04.07.2020 23:00 19,1 C 16,7 C 17,2 C 92 % 1013,7 hPa 0,0 l/m 0 min 0 min 0 W/m 19,3 km/h (3 Bft) 100,00 %
04.07.2020 23:02 19,1 C 16,7 C 17,2 C 92 % 1013,7 hPa 0,0 l/m 0 min 0 min 0 W/m 19,3 km/h (3 Bft) 100,00 %
04.07.2020 23:04 19,1 C 16,7 C 17,2 C 92 % 1013,7 hPa 0,0 l/m 0 min 0 min 0 W/m 22,5 km/h (4 Bft) 100,00 %
04.07.2020 23:06 19,1 C 16,7 C 17,2 C 93 % 1013,8 hPa 0,2 l/m 0 min 0 min 0 W/m 19,3 km/h (3 Bft) 100,00 %
04.07.2020 23:08 19,1 C 16,7 C 17,2 C 93 % 1013,7 hPa 0,0 l/m 0 min 0 min 0 W/m 16,1 km/h (3 Bft) 100,00 %
04.07.2020 23:10 19,0 C 16,7 C 17,2 C 93 % 1013,7 hPa 0,0 l/m 0 min 0 min 0 W/m 19,3 km/h (3 Bft) 100,00 %
04.07.2020 23:12 19,0 C 16,7 C 17,2 C 93 % 1013,7 hPa 0,0 l/m 0 min 0 min 0 W/m 19,3 km/h (3 Bft) 100,00 %
04.07.2020 23:14 18,9 C 16,7 C 17,2 C 93 % 1013,6 hPa 0,0 l/m 0 min 2 min 0 W/m 9,7 km/h (2 Bft) 97,87 %
04.07.2020 23:16 18,9 C 16,7 C 17,2 C 93 % 1013,6 hPa 0,0 l/m 0 min 2 min 0 W/m 29,0 km/h (5 Bft) 97,87 %
04.07.2020 23:18 18,9 C 16,7 C 17,2 C 93 % 1013,6 hPa 0,0 l/m 0 min 2 min 0 W/m 12,9 km/h (3 Bft) 97,87 %
04.07.2020 23:20 18,9 C 16,7 C 17,2 C 93 % 1013,6 hPa 0,0 l/m 0 min 0 min 0 W/m 9,7 km/h (2 Bft) 97,87 %
04.07.2020 23:22 18,8 C 16,7 C 16,7 C 94 % 1013,6 hPa 0,0 l/m 0 min 0 min 0 W/m 12,9 km/h (3 Bft) 100,00 %
04.07.2020 23:24 18,8 C 16,7 C 16,7 C 94 % 1013,6 hPa 0,0 l/m 0 min 0 min 0 W/m 6,4 km/h (2 Bft) 100,00 %
04.07.2020 23:26 18,8 C 16,7 C 16,7 C 94 % 1013,6 hPa 0,0 l/m 0 min 0 min 0 W/m 12,9 km/h (3 Bft) 100,00 %
04.07.2020 23:28 18,8 C 16,7 C 16,7 C 94 % 1013,7 hPa 0,0 l/m 0 min 0 min 0 W/m 32,2 km/h (5 Bft) 97,87 %
04.07.2020 23:30 18,8 C 17,2 C 17,2 C 94 % 1013,6 hPa 0,0 l/m 0 min 0 min 0 W/m 25,7 km/h (4 Bft) 97,87 %
04.07.2020 23:32 18,8 C 17,2 C 17,2 C 94 % 1013,6 hPa 0,0 l/m 0 min 0 min 0 W/m 12,9 km/h (3 Bft) 100,00 %
04.07.2020 23:34 18,7 C 17,2 C 17,2 C 94 % 1013,6 hPa 0,0 l/m 0 min 2 min 0 W/m 41,8 km/h (6 Bft) 100,00 %
04.07.2020 23:36 18,7 C 17,2 C 17,2 C 94 % 1013,6 hPa 0,0 l/m 0 min 0 min 0 W/m 35,4 km/h (5 Bft) 100,00 %
04.07.2020 23:38 18,7 C 17,2 C 17,2 C 95 % 1013,6 hPa 0,0 l/m 0 min 0 min 0 W/m 12,9 km/h (3 Bft) 98,28 %
04.07.2020 23:40 18,7 C 17,2 C 17,2 C 95 % 1013,6 hPa 0,0 l/m 0 min 0 min 0 W/m 19,3 km/h (3 Bft) 97,14 %
04.07.2020 23:42 18,7 C 16,7 C 17,2 C 95 % 1013,5 hPa 0,0 l/m 0 min 0 min 0 W/m 22,5 km/h (4 Bft) 97,87 %
04.07.2020 23:44 18,7 C 16,7 C 17,2 C 95 % 1013,6 hPa 0,0 l/m 0 min 2 min 0 W/m 32,2 km/h (5 Bft) 97,87 %
04.07.2020 23:46 18,7 C 16,7 C 17,2 C 95 % 1013,5 hPa 0,0 l/m 0 min 2 min 0 W/m 25,7 km/h (4 Bft) 97,87 %
04.07.2020 23:48 18,7 C 16,7 C 17,2 C 95 % 1013,6 hPa 0,0 l/m 0 min 0 min 0 W/m 19,3 km/h (3 Bft) 97,87 %
04.07.2020 23:50 18,7 C 16,7 C 17,2 C 95 % 1013,6 hPa 0,0 l/m 0 min 0 min 0 W/m 25,7 km/h (4 Bft) 95,74 %
04.07.2020 23:52 18,7 C 17,2 C 17,2 C 95 % 1013,5 hPa 0,0 l/m 0 min 0 min 0 W/m 22,5 km/h (4 Bft) 95,65 %
04.07.2020 23:54 18,7 C 17,2 C 17,2 C 95 % 1013,5 hPa 0,0 l/m 0 min 0 min 0 W/m 12,9 km/h (3 Bft) 95,74 %
04.07.2020 23:56 18,6 C 17,2 C 17,2 C 95 % 1013,5 hPa 0,0 l/m 0 min 0 min 0 W/m 19,3 km/h (3 Bft) 95,74 %
04.07.2020 23:58 18,7 C 17,2 C 17,2 C 95 % 1013,4 hPa 0,0 l/m 0 min 0 min 0 W/m 22,5 km/h (4 Bft) 95,74 %
_ Min-Zeit 04:46 03:32 03:16 11:12 23:58 - - - - 00:00 11:42
Minimum _ 15,1 C 13,9 C 13,9 C 68 % 1013,4 hPa - - - - 0,0 km/h (0 Bft) 87,23 %
_ Max-Zeit 15:06 10:54 10:54 23:38 00:46 22:52 09:20 12:08 10:54 14:34 00:22
Maximum _ 22,2 C 23,9 C 21,7 C 95 % 1017,9 hPa 0,2 l/m 2 min 4 min 598 W/m 48,3 km/h
S (6 Bft)
100,00 %
Durchschnitt _ 18,8 C 18,3 C 17,6 C 80 % 1015,5 hPa #0,4 l/m #56 min. #1:52 h 161 W/m 17,5 km/h (3 Bft) 97,38 %
© 2020 W. Hausmann